M I D A S
Marine Information and Data Acquisition System
Tripno 1523 of the Zeeleeuw from 2008-07-22 06:44:23 to 2008-07-22 12:24:34
Back to CruiseResearch ActivitiesStationsMapUnderway DataData graphs

EquipmentUnitsComment
TimeDGPSUTC
LatitudeDGPSDM.mWGS84
LongitudeDGPSDM.mWGS84
TemperatureSBE03/SBE38deg celciusITS90
ConductivitySBE21S/mITS90
SalinitySBE21 Practical Salinity Units
ChlorophylAChelsea fluorimeterg/lCalibrated in Aceton
Missing or incorrect values are displayed as -999
Sea surface data collected by the RV Zeeleeuw from 2008-07-22 06:46:12 to 2008-07-22 12:28:47
                                                                                    Next 1000 lines
Time Latitude Longitude Temperature Conductivity Salinity ChlorophylA
2008-07-22 06:46:22 51°13.623 2°56.044 19.0968 0.020186 0.111144 -1.557753
2008-07-22 06:46:27 51°13.624 2°56.042 19.0839 0.019877 0.109468 -1.592577
2008-07-22 06:46:32 51°13.624 2°56.04 19.0924 0.020083 0.110584 -1.592577
2008-07-22 06:46:37 51°13.625 2°56.036 19.0865 0.01998 0.110026 -1.557753
2008-07-22 06:46:42 51°13.626 2°56.033 19.0846 0.01998 0.110024 -1.592577
2008-07-22 06:46:47 51°13.627 2°56.028 19.0863 0.01998 0.110024 -1.592577
2008-07-22 06:46:52 51°13.629 2°56.023 19.0962 0.020083 0.110584 -1.592577
2008-07-22 06:46:57 51°13.63 2°56.018 19.0962 0.020186 0.111142 -1.557753
2008-07-22 06:47:02 51°13.632 2°56.012 19.0983 0.020083 0.110584 -1.592577
2008-07-22 06:47:07 51°13.633 2°56.006 19.0994 0.020083 0.110585 -1.557753
2008-07-22 06:47:12 51°13.635 2°55.999 19.097 0.01998 0.110028 -1.557753
2008-07-22 06:47:17 51°13.636 2°55.992 19.0989 0.01998 0.110028 -1.557753
2008-07-22 06:47:22 51°13.638 2°55.985 19.1004 0.020083 0.110585 -1.557753
2008-07-22 06:47:27 51°13.64 2°55.978 19.098 0.01998 0.110029 -1.592577
2008-07-22 06:47:32 51°13.641 2°55.97 19.0968 0.01998 0.110029 -1.557753
2008-07-22 06:47:37 51°13.643 2°55.962 19.0971 0.020083 0.110587 -1.557753
2008-07-22 06:47:42 51°13.644 2°55.954 19.0983 0.01998 0.110029 -1.592577
2008-07-22 06:47:47 51°13.646 2°55.946 19.0967 0.01998 0.110029 -1.592577
2008-07-22 06:47:52 51°13.648 2°55.937 19.0959 0.020083 0.110587 -1.592577
2008-07-22 06:47:57 51°13.65 2°55.928 19.0933 0.01998 0.110029 -1.592577
2008-07-22 06:48:02 51°13.652 2°55.92 19.0997 0.01998 0.110029 -1.592577
2008-07-22 06:48:07 51°13.654 2°55.911 19.1013 0.020083 0.110587 -1.557753
2008-07-22 06:48:12 51°13.657 2°55.902 19.0975 0.01998 0.110029 -1.557753
2008-07-22 06:48:17 51°13.659 2°55.894 19.0961 0.01998 0.110029 -1.557753
2008-07-22 06:48:22 51°13.662 2°55.885 19.0992 0.01998 0.110029 -1.592577
2008-07-22 06:48:27 51°13.665 2°55.876 19.1056 0.01998 0.110029 -1.592577
2008-07-22 06:48:32 51°13.668 2°55.867 19.1089 0.01998 0.110031 -1.557753
2008-07-22 06:48:37 51°13.671 2°55.858 19.1049 0.020083 0.110589 -1.557753
2008-07-22 06:48:42 51°13.674 2°55.85 19.1075 0.020289 0.111709 -1.557753
2008-07-22 06:48:47 51°13.677 2°55.842 19.1062 0.020289 0.111709 -1.557753
2008-07-22 06:48:52 51°13.68 2°55.834 19.1062 0.020083 0.110594 -1.592577
2008-07-22 06:48:57 51°13.683 2°55.826 19.1057 0.020083 0.110594 -1.557753
2008-07-22 06:49:02 51°13.687 2°55.818 19.1064 0.020083 0.110596 -1.592577
2008-07-22 06:49:07 51°13.69 2°55.811 19.104 0.020083 0.110596 -1.592577
2008-07-22 06:49:12 51°13.694 2°55.802 19.1065 0.020186 0.111154 -1.592577
2008-07-22 06:49:17 51°13.697 2°55.795 19.1114 0.020186 0.111154 -1.592577
2008-07-22 06:49:22 51°13.7 2°55.788 19.1107 0.020186 0.111156 -1.592577
2008-07-22 06:49:27 51°13.703 2°55.781 19.1109 0.020289 0.111715 -1.557753
2008-07-22 06:49:32 51°13.706 2°55.775 19.1081 0.020186 0.111158 -1.592577
2008-07-22 06:49:37 51°13.708 2°55.77 19.1122 0.020392 0.112275 -1.592577
2008-07-22 06:49:41 51°13.71 2°55.766 19.1136 0.020392 0.112277 -1.592577
2008-07-22 06:49:46 51°13.712 2°55.763 19.1169 0.020392 0.112277 -1.592577
2008-07-22 06:49:52 51°13.713 2°55.76 19.1172 0.0207 0.113955 -1.592577
2008-07-22 06:49:57 51°13.713 2°55.759 19.1151 0.020495 0.112839 -1.557753
2008-07-22 06:50:01 51°13.714 2°55.759 19.1157 0.020597 0.1134 -1.592577
2008-07-22 06:50:06 51°13.714 2°55.76 19.1153 0.020597 0.113404 -1.592577
2008-07-22 06:50:11 51°13.714 2°55.762 19.1165 0.0207 0.113964 -1.557753
2008-07-22 06:50:17 51°13.714 2°55.765 19.1167 0.0207 0.113964 -1.557753
2008-07-22 06:50:21 51°13.714 2°55.768 19.1182 0.020803 0.114525 -1.557753
2008-07-22 06:50:26 51°13.715 2°55.773 19.1074 0.0207 0.113968 -1.592577
2008-07-22 06:50:32 51°13.716 2°55.778 19.0937 0.020289 0.111731 -1.557753
2008-07-22 06:50:37 51°13.716 2°55.781 19.0888 0.020289 0.111727 -1.557753
2008-07-22 06:50:41 51°13.717 2°55.784 19.08 0.020186 0.111167 -1.592577
2008-07-22 06:50:46 51°13.718 2°55.786 19.0853 0.020186 0.111167 -1.592577
2008-07-22 06:50:51 51°13.718 2°55.787 19.0923 0.020186 0.111163 -1.557753
2008-07-22 06:50:57 51°13.719 2°55.788 19.0947 0.020392 0.11228 -1.557753
2008-07-22 06:51:01 51°13.719 2°55.788 19.0785 0.01998 0.110044 -1.592577
2008-07-22 06:51:06 51°13.718 2°55.787 19.0686 0.019877 0.109482 -1.592577
2008-07-22 06:51:11 51°13.718 2°55.785 19.0832 0.020186 0.111154 -1.557753
2008-07-22 06:51:17 51°13.717 2°55.782 19.0921 0.020186 0.111154 -1.557753
2008-07-22 06:51:21 51°13.716 2°55.78 19.0903 0.020083 0.110596 -1.557753
2008-07-22 06:51:27 51°13.714 2°55.775 19.0975 0.020289 0.111713 -1.592577
2008-07-22 06:51:32 51°13.713 2°55.771 19.0964 0.020186 0.111154 -1.592577
2008-07-22 06:51:37 51°13.711 2°55.767 19.1024 0.020186 0.111154 -1.557753
2008-07-22 06:51:42 51°13.709 2°55.763 19.0973 0.020186 0.111156 -1.592577
2008-07-22 06:51:47 51°13.708 2°55.758 19.096 0.020186 0.111156 -1.592577
2008-07-22 06:51:52 51°13.706 2°55.754 19.1014 0.020083 0.110598 -1.592577
2008-07-22 06:51:56 51°13.704 2°55.751 19.1045 0.020186 0.111158 -1.592577
2008-07-22 06:52:01 51°13.703 2°55.746 19.104 0.020186 0.11116 -1.557753
2008-07-22 06:52:07 51°13.701 2°55.742 19.1046 0.020392 0.112279 -1.592577
2008-07-22 06:52:12 51°13.7 2°55.739 19.1102 0.020392 0.11228 -1.557753
2008-07-22 06:52:17 51°13.699 2°55.737 19.1108 0.020392 0.11228 -1.557753
2008-07-22 06:52:21 51°13.698 2°55.736 19.1144 0.020495 0.112841 -1.592577
2008-07-22 06:52:26 51°13.698 2°55.735 19.1138 0.020597 0.113402 -1.592577
2008-07-22 06:52:32 51°13.698 2°55.735 19.1075 0.020495 0.112845 -1.592577
2008-07-22 06:52:37 51°13.699 2°55.735 19.112 0.0207 0.113966 -1.592577
2008-07-22 06:52:41 51°13.7 2°55.735 19.1122 0.020597 0.113409 -1.592577
2008-07-22 06:52:46 51°13.702 2°55.736 19.1163 0.020597 0.113409 -1.592577
2008-07-22 06:52:52 51°13.704 2°55.736 19.1197 0.0207 0.11397 -1.557753
2008-07-22 06:52:57 51°13.707 2°55.737 19.1256 0.020906 0.115092 -1.557753
2008-07-22 06:53:01 51°13.71 2°55.737 19.1271 0.020906 0.115094 -1.592577
2008-07-22 06:53:06 51°13.714 2°55.736 19.1266 0.021009 0.115656 -1.592577
2008-07-22 06:53:11 51°13.718 2°55.734 19.1258 0.020803 0.114539 -1.592577
2008-07-22 06:53:17 51°13.723 2°55.731 19.1226 0.020803 0.114539 -1.592577
2008-07-22 06:53:21 51°13.727 2°55.728 19.1162 0.0207 0.113977 -1.557753
2008-07-22 06:53:26 51°13.733 2°55.724 19.1077 0.020495 0.112856 -1.592577
2008-07-22 06:53:31 51°13.738 2°55.719 19.1004 0.020392 0.112291 -1.557753
2008-07-22 06:53:36 51°13.745 2°55.713 19.0935 0.020186 0.111171 -1.592577
2008-07-22 06:53:41 51°13.752 2°55.707 19.0795 0.020392 0.112282 -1.592577
2008-07-22 06:53:46 51°13.759 2°55.701 19.076 0.020392 0.112282 -1.592577
2008-07-22 06:53:52 51°13.768 2°55.692 19.0734 0.020083 0.110603 -1.557753
2008-07-22 06:53:57 51°13.777 2°55.685 19.074 0.020083 0.110602 -1.557753
2008-07-22 06:54:01 51°13.784 2°55.678 19.0769 0.020186 0.111158 -1.592577
2008-07-22 06:54:06 51°13.793 2°55.671 19.0913 0.020186 0.111158 -1.592577
2008-07-22 06:54:12 51°13.804 2°55.661 19.085 0.01998 0.110042 -1.557753
2008-07-22 06:54:16 51°13.812 2°55.654 19.0832 0.01998 0.110042 -1.557753
2008-07-22 06:54:21 51°13.822 2°55.646 19.0735 0.019774 0.108926 -1.557753
2008-07-22 06:54:26 51°13.832 2°55.638 19.0894 0.020083 0.110602 -1.592577
2008-07-22 06:54:32 51°13.844 2°55.628 19.1017 0.020289 0.111722 -1.592577
2008-07-22 06:54:37 51°13.855 2°55.619 19.1053 0.01998 0.110049 -1.557753
2008-07-22 06:54:41 51°13.863 2°55.611 19.0853 0.019774 0.108933 -1.592577
2008-07-22 06:54:46 51°13.874 2°55.602 19.0881 0.019774 0.108933 -1.592577
2008-07-22 06:54:52 51°13.887 2°55.591 19.0846 0.019877 0.109491 -1.557753
2008-07-22 06:54:57 51°13.898 2°55.581 19.082 0.019877 0.109491 -1.592577
2008-07-22 06:55:01 51°13.907 2°55.574 19.0836 0.019774 0.108935 -1.557753
2008-07-22 06:55:06 51°13.918 2°55.565 19.093 0.019877 0.109493 -1.557753
2008-07-22 06:55:11 51°13.929 2°55.556 19.1006 0.019877 0.109493 -1.592577
2008-07-22 06:55:17 51°13.943 2°55.545 19.0947 0.019877 0.109493 -1.592577
2008-07-22 06:55:21 51°13.952 2°55.538 19.1014 0.019774 0.108937 -1.557753
2008-07-22 06:55:26 51°13.964 2°55.529 19.1019 0.019877 0.109495 -1.592577
2008-07-22 06:55:31 51°13.975 2°55.52 19.1011 0.019568 0.107823 -1.592577
2008-07-22 06:55:37 51°13.988 2°55.509 19.0904 0.019774 0.108937 -1.557753
2008-07-22 06:55:41 51°13.997 2°55.501 19.0842 0.019671 0.108379 -1.592577
2008-07-22 06:55:46 51°14.008 2°55.493 19.0923 0.019671 0.108379 -1.592577
2008-07-22 06:55:51 51°14.018 2°55.485 19.0959 0.019877 0.109496 -1.592577
2008-07-22 06:55:56 51°14.028 2°55.477 19.1111 0.01998 0.110054 -1.592577
2008-07-22 06:56:01 51°14.039 2°55.47 19.1143 0.020186 0.111174 -1.592577
2008-07-22 06:56:06 51°14.049 2°55.462 19.1142 0.01998 0.110061 -1.557753
2008-07-22 06:56:11 51°14.06 2°55.454 19.1137 0.01998 0.11006 -1.557753
2008-07-22 06:56:17 51°14.074 2°55.444 19.1128 0.01998 0.11006 -1.557753
2008-07-22 06:56:21 51°14.083 2°55.437 19.1037 0.020083 0.11062 -1.592577
2008-07-22 06:56:26 51°14.095 2°55.429 19.0997 0.01998 0.11006 -1.592577
2008-07-22 06:56:31 51°14.107 2°55.42 19.0973 0.020186 0.111176 -1.557753
2008-07-22 06:56:37 51°14.122 2°55.409 19.0971 0.019877 0.109502 -1.592577
2008-07-22 06:56:41 51°14.131 2°55.402 19.1021 0.020083 0.110618 -1.557753
2008-07-22 06:56:46 51°14.143 2°55.393 19.1044 0.020083 0.110618 -1.557753
2008-07-22 06:56:52 51°14.158 2°55.382 19.1078 0.01998 0.11006 -1.592577
2008-07-22 06:56:57 51°14.17 2°55.371 19.1179 0.020289 0.111736 -1.592577
2008-07-22 06:57:01 51°14.179 2°55.363 19.1238 0.020597 0.113416 -1.592577
2008-07-22 06:57:06 51°14.19 2°55.351 19.1139 0.020495 0.112865 -1.592577
2008-07-22 06:57:12 51°14.203 2°55.335 19.1061 0.020289 0.111747 -1.557753
2008-07-22 06:57:17 51°14.213 2°55.32 19.1022 0.020289 0.111747 -1.557753
2008-07-22 06:57:21 51°14.221 2°55.308 19.1049 0.020289 0.111747 -1.592577
2008-07-22 06:57:26 51°14.231 2°55.293 19.0972 0.020392 0.112304 -1.557753
2008-07-22 06:57:31 51°14.241 2°55.276 19.0992 0.020083 0.110627 -1.557753
2008-07-22 06:57:37 51°14.253 2°55.256 19.0989 0.020392 0.112301 -1.557753
2008-07-22 06:57:41 51°14.261 2°55.242 19.0916 0.020392 0.112302 -1.592577
2008-07-22 06:57:46 51°14.271 2°55.224 19.0781 0.020392 0.112302 -1.592577
2008-07-22 06:57:51 51°14.28 2°55.205 19.0818 0.019774 0.108947 -1.592577
2008-07-22 06:57:57 51°14.292 2°55.183 19.0795 0.021009 0.115652 -1.592577
2008-07-22 06:58:01 51°14.299 2°55.169 19.0784 0.0207 0.113974 -1.557753
2008-07-22 06:58:06 51°14.309 2°55.15 19.0871 0.0207 0.113972 -1.557753
2008-07-22 06:58:11 51°14.318 2°55.131 19.106 0.020597 0.113411 -1.592577
2008-07-22 06:58:17 51°14.329 2°55.109 19.102 0.020597 0.113411 -1.592577
2008-07-22 06:58:21 51°14.337 2°55.094 19.095 0.021729 0.119579 -1.592577
2008-07-22 06:58:26 51°14.346 2°55.074 19.0678 0.020906 0.1151 -1.557753
2008-07-22 06:58:31 51°14.355 2°55.054 19.0882 0.021112 0.11621 -1.557753
2008-07-22 06:58:37 51°14.365 2°55.03 19.0766 0.020906 0.115092 -1.557753
2008-07-22 06:58:41 51°14.373 2°55.014 19.0827 0.021318 0.117333 -1.592577
2008-07-22 06:58:46 51°14.381 2°54.993 19.0721 0.021318 0.117333 -1.592577
2008-07-22 06:58:51 51°14.39 2°54.972 19.0754 0.021112 0.116198 -1.557753
2008-07-22 06:58:57 51°14.4 2°54.947 19.0478 0.022141 0.121814 -1.557753
2008-07-22 06:59:01 51°14.407 2°54.93 19.0562 0.022244 0.122367 -1.592577
2008-07-22 06:59:06 51°14.416 2°54.909 19.0845 0.021729 0.119549 -1.592577
2008-07-22 06:59:11 51°14.424 2°54.888 19.0871 0.022758 0.125148 -1.592577
2008-07-22 06:59:17 51°14.434 2°54.862 19.0551 0.022758 0.125148 -1.592577
2008-07-22 06:59:21 51°14.441 2°54.845 19.075 0.022656 0.124605 -1.592577
2008-07-22 06:59:26 51°14.449 2°54.824 19.0625 0.02245 0.12347 -1.557753
2008-07-22 06:59:31 51°14.458 2°54.803 19.068 0.021935 0.120656 -1.592577
2008-07-22 06:59:37 51°14.469 2°54.779 19.0621 0.021935 0.120664 -1.557753
2008-07-22 06:59:41 51°14.477 2°54.762 19.0792 0.022244 0.122357 -1.557753
2008-07-22 06:59:46 51°14.486 2°54.742 19.0776 0.022244 0.122357 -1.557753
2008-07-22 06:59:52 51°14.498 2°54.719 19.0645 0.022553 0.124064 -1.557753
2008-07-22 06:59:57 51°14.509 2°54.7 19.0573 0.021524 0.118461 -1.592577
2008-07-22 07:00:01 51°14.517 2°54.686 19.075 0.021729 0.119586 -1.592577
2008-07-22 07:00:06 51°14.529 2°54.668 19.0619 0.021421 0.117911 -1.592577
2008-07-22 07:00:11 51°14.54 2°54.651 19.0707 0.021626 0.119044 -1.592577
2008-07-22 07:00:17 51°14.555 2°54.633 19.07 0.021626 0.119044 -1.592577
2008-07-22 07:00:21 51°14.565 2°54.622 19.0544 0.022964 0.126382 -1.592577
2008-07-22 07:00:26 51°14.578 2°54.609 19.0528 0.022244 0.122491 -1.592577
2008-07-22 07:00:31 51°14.59 2°54.596 19.0557 0.023376 0.128715 -1.592577
2008-07-22 07:00:36 51°14.603 2°54.584 19.0602 0.024611 0.135496 -1.557753
2008-07-22 07:00:41 51°14.617 2°54.572 19.0737 0.024611 0.135578 -1.592577
2008-07-22 07:00:46 51°14.63 2°54.56 19.0526 0.024611 0.135578 -1.592577
2008-07-22 07:00:51 51°14.644 2°54.549 19.0514 0.023479 0.129393 -1.557753
2008-07-22 07:00:56 51°14.657 2°54.537 19.0549 0.023479 0.129365 -1.557753
2008-07-22 07:01:01 51°14.67 2°54.525 19.0663 0.024405 0.134384 -1.592577
2008-07-22 07:01:06 51°14.684 2°54.514 19.0601 0.023993 0.132163 -1.592577
2008-07-22 07:01:11 51°14.697 2°54.502 19.0609 0.024508 0.135047 -1.592577
2008-07-22 07:01:17 51°14.712 2°54.489 19.0662 0.024508 0.135047 -1.592577
2008-07-22 07:01:21 51°14.723 2°54.48 19.0728 0.023685 0.130539 -1.592577
2008-07-22 07:01:26 51°14.736 2°54.47 19.064 0.024405 0.134445 -1.592577
2008-07-22 07:01:32 51°14.752 2°54.457 19.071 0.023582 0.129927 -1.557753
2008-07-22 07:01:37 51°14.766 2°54.446 19.062 0.024302 0.133884 -1.592577
2008-07-22 07:01:41 51°14.776 2°54.438 19.061 0.023685 0.130504 -1.592577
2008-07-22 07:01:46 51°14.789 2°54.427 19.0562 0.023685 0.130504 -1.592577
2008-07-22 07:01:51 51°14.802 2°54.417 19.0722 0.023582 0.129951 -1.592577
2008-07-22 07:01:57 51°14.818 2°54.404 19.0804 0.023582 0.129981 -1.592577
2008-07-22 07:02:01 51°14.829 2°54.396 19.0711 0.023788 0.131168 -1.592577
2008-07-22 07:02:06 51°14.842 2°54.385 19.0793 0.02389 0.131758 -1.557753
2008-07-22 07:02:11 51°14.855 2°54.374 19.0797 0.024817 0.136788 -1.592577
2008-07-22 07:02:17 51°14.871 2°54.361 19.0713 0.024817 0.136788 -1.592577
2008-07-22 07:02:21 51°14.881 2°54.352 19.0782 0.024508 0.135111 -1.557753
2008-07-22 07:02:26 51°14.894 2°54.341 19.0768 0.024405 0.134615 -1.592577
2008-07-22 07:02:31 51°14.908 2°54.329 19.0742 0.023685 0.130669 -1.592577
2008-07-22 07:02:37 51°14.924 2°54.315 19.0736 0.022964 0.126707 -1.557753
2008-07-22 07:02:41 51°14.934 2°54.306 19.0757 0.024405 0.134652 -1.557753
2008-07-22 07:02:46 51°14.948 2°54.294 19.0666 0.024405 0.134652 -1.557753
2008-07-22 07:02:51 51°14.961 2°54.283 19.0641 0.023479 0.129604 -1.557753
2008-07-22 07:02:57 51°14.978 2°54.269 19.0662 0.02317 0.12791 -1.592577
2008-07-22 07:03:01 51°14.989 2°54.261 19.0667 0.024302 0.134151 -1.592577
2008-07-22 07:03:06 51°15.002 2°54.25 19.0605 0.024405 0.134777 -1.592577
2008-07-22 07:03:11 51°15.016 2°54.24 19.0547 0.024199 0.133594 -1.557753
2008-07-22 07:03:16 51°15.03 2°54.229 19.0721 0.024199 0.133594 -1.557753
2008-07-22 07:03:21 51°15.044 2°54.218 19.0682 0.024302 0.134101 -1.557753
2008-07-22 07:03:26 51°15.058 2°54.207 19.0623 0.024302 0.134036 -1.557753
2008-07-22 07:03:31 51°15.072 2°54.196 19.0686 0.024199 0.13347 -1.592577
2008-07-22 07:03:37 51°15.088 2°54.183 19.0756 0.024302 0.134018 -1.592577
2008-07-22 07:03:41 51°15.099 2°54.174 19.069 0.022964 0.126633 -1.557753
2008-07-22 07:03:46 51°15.113 2°54.163 19.0793 0.022964 0.126633 -1.557753
2008-07-22 07:03:52 51°15.13 2°54.15 19.0835 0.024508 0.135163 -1.592577
2008-07-22 07:03:57 51°15.144 2°54.14 19.0746 0.025125 0.13868 -1.592577
2008-07-22 07:04:01 51°15.155 2°54.131 19.0613 0.024096 0.133059 -1.592577
2008-07-22 07:04:06 51°15.168 2°54.12 19.0654 0.024817 0.13699 -1.592577
2008-07-22 07:04:11 51°15.182 2°54.109 19.0651 0.023788 0.131371 -1.557753
2008-07-22 07:04:16 51°15.196 2°54.098 19.0625 0.023788 0.131371 -1.557753
2008-07-22 07:04:21 51°15.21 2°54.088 19.0651 0.023479 0.129671 -1.592577
2008-07-22 07:04:25 51°15.221 2°54.079 19.0733 0.024096 0.133092 -1.557753
2008-07-22 07:04:30 51°15.235 2°54.068 19.0677 0.024302 0.134258 -1.557753
2008-07-22 07:04:35 51°15.249 2°54.057 19.0748 0.024405 0.134781 -1.557753
2008-07-22 07:04:40 51°15.262 2°54.047 19.0767 0.024096 0.133045 -1.557753
2008-07-22 07:04:45 51°15.275 2°54.036 19.0802 0.024096 0.133045 -1.557753
2008-07-22 07:04:49 51°15.286 2°54.027 19.0779 0.024508 0.135312 -1.592577
2008-07-22 07:04:54 51°15.3 2°54.016 19.0706 0.024302 0.13419 -1.592577
2008-07-22 07:04:59 51°15.314 2°54.005 19.0727 0.024508 0.135312 -1.557753
2008-07-22 07:05:04 51°15.327 2°53.994 19.0828 0.024405 0.134763 -1.557753
2008-07-22 07:05:09 51°15.341 2°53.983 19.0847 0.024508 0.135353 -1.592577
2008-07-22 07:05:13 51°15.352 2°53.975 19.0801 0.024508 0.135353 -1.592577
2008-07-22 07:05:18 51°15.365 2°53.963 19.0796 0.024199 0.13365 -1.557753
2008-07-22 07:05:23 51°15.379 2°53.952 19.078 0.024302 0.134239 -1.557753
2008-07-22 07:05:28 51°15.392 2°53.94 19.0722 0.023788 0.1314 -1.592577
2008-07-22 07:05:33 51°15.406 2°53.929 19.0763 0.024919 0.137795 -1.592577
2008-07-22 07:05:37 51°15.417 2°53.919 19.0792 0.023479 0.129898 -1.557753
2008-07-22 07:05:43 51°15.434 2°53.905 19.0719 0.023479 0.129898 -1.557753
2008-07-22 07:05:48 51°15.447 2°53.893 19.0684 0.02245 0.124241 -1.557753
2008-07-22 07:05:53 51°15.462 2°53.881 19.0735 0.022656 0.125328 -1.592577
2008-07-22 07:05:57 51°15.473 2°53.871 19.085 0.025125 0.138923 -1.557753
2008-07-22 07:06:03 51°15.49 2°53.858 19.0847 0.023993 0.132633 -1.592577
2008-07-22 07:06:08 51°15.504 2°53.847 19.0863 0.024508 0.135447 -1.592577
2008-07-22 07:06:13 51°15.518 2°53.837 19.0875 0.024508 0.135447 -1.592577
2008-07-22 07:06:17 51°15.53 2°53.828 19.0903 0.024817 0.137087 -1.592577
2008-07-22 07:06:23 51°15.547 2°53.817 19.0754 0.024096 0.133083 -1.592577
2008-07-22 07:06:28 51°15.561 2°53.806 19.0806 0.024302 0.13423 -1.592577
2008-07-22 07:06:33 51°15.576 2°53.797 19.0806 0.024508 0.135401 -1.592577
2008-07-22 07:06:37 51°15.588 2°53.79 19.076 0.024302 0.134296 -1.592577
2008-07-22 07:06:43 51°15.606 2°53.779 19.0874 0.024302 0.134296 -1.592577
2008-07-22 07:06:48 51°15.621 2°53.771 19.088 0.023788 0.131462 -1.557753
2008-07-22 07:06:53 51°15.636 2°53.761 19.0912 0.025022 0.138267 -1.557753
2008-07-22 07:06:57 51°15.648 2°53.754 19.0929 0.024199 0.133765 -1.592577
2008-07-22 07:07:03 51°15.666 2°53.745 19.0955 0.02317 0.128127 -1.557753
2008-07-22 07:07:08 51°15.681 2°53.736 19.0949 0.024714 0.136631 -1.557753
2008-07-22 07:07:13 51°15.695 2°53.728 19.0899 0.024714 0.136631 -1.557753
2008-07-22 07:07:17 51°15.707 2°53.721 19.0936 0.025434 0.140622 -1.592577
2008-07-22 07:07:23 51°15.725 2°53.712 19.0846 0.024817 0.137211 -1.557753
2008-07-22 07:07:28 51°15.739 2°53.703 19.0921 0.024714 0.136642 -1.592577
2008-07-22 07:07:33 51°15.754 2°53.694 19.0937 0.024405 0.134948 -1.592577
2008-07-22 07:07:37 51°15.766 2°53.687 19.0815 0.025434 0.140648 -1.557753
2008-07-22 07:07:43 51°15.783 2°53.677 19.0827 0.025434 0.140648 -1.557753
2008-07-22 07:07:48 51°15.798 2°53.668 19.0882 0.023993 0.132674 -1.557753
2008-07-22 07:07:53 51°15.813 2°53.659 19.0848 0.024817 0.137234 -1.592577
2008-07-22 07:07:58 51°15.828 2°53.651 19.0864 0.02564 0.141796 -1.592577
2008-07-22 07:08:03 51°15.842 2°53.642 19.0925 0.024199 0.13379 -1.557753
2008-07-22 07:08:08 51°15.857 2°53.633 19.0959 0.023479 0.1298 -1.557753
2008-07-22 07:08:13 51°15.872 2°53.625 19.0934 0.023479 0.1298 -1.557753
2008-07-22 07:08:17 51°15.884 2°53.618 19.0919 0.025125 0.13888 -1.592577
2008-07-22 07:08:23 51°15.902 2°53.608 19.0864 0.02389 0.132084 -1.592577
2008-07-22 07:08:28 51°15.917 2°53.599 19.0835 0.024714 0.136654 -1.592577
2008-07-22 07:08:33 51°15.931 2°53.59 19.0963 0.025228 0.139527 -1.557753
2008-07-22 07:08:38 51°15.946 2°53.581 19.0989 0.023993 0.132739 -1.592577
2008-07-22 07:08:43 51°15.96 2°53.571 19.0973 0.023993 0.132739 -1.592577
2008-07-22 07:08:48 51°15.974 2°53.562 19.0965 0.025022 0.138401 -1.592577
2008-07-22 07:08:53 51°15.989 2°53.552 19.0983 0.024199 0.13387 -1.592577
2008-07-22 07:08:58 51°16.003 2°53.542 19.104 0.023479 0.129918 -1.592577
2008-07-22 07:09:03 51°16.017 2°53.533 19.1028 0.024302 0.134426 -1.557753
2008-07-22 07:09:08 51°16.032 2°53.523 19.0939 0.024817 0.137281 -1.592577
2008-07-22 07:09:13 51°16.046 2°53.514 19.0995 0.024817 0.137281 -1.592577
2008-07-22 07:09:18 51°16.061 2°53.505 19.1014 0.023582 0.130474 -1.592577
2008-07-22 07:09:23 51°16.076 2°53.495 19.0999 0.023993 0.132716 -1.592577
2008-07-22 07:09:28 51°16.09 2°53.486 19.1021 0.024405 0.13498 -1.557753
2008-07-22 07:09:33 51°16.105 2°53.477 19.1035 0.02389 0.132165 -1.592577
2008-07-22 07:09:37 51°16.117 2°53.469 19.102 0.024405 0.135003 -1.557753
2008-07-22 07:09:43 51°16.135 2°53.459 19.1025 0.024405 0.135003 -1.557753
2008-07-22 07:09:48 51°16.149 2°53.45 19.098 0.023685 0.131008 -1.592577
2008-07-22 07:09:53 51°16.164 2°53.441 19.0989 0.024096 0.133268 -1.592577
2008-07-22 07:09:58 51°16.179 2°53.432 19.1081 0.024199 0.13384 -1.557753
2008-07-22 07:10:03 51°16.194 2°53.423 19.1036 0.024096 0.133259 -1.557753
2008-07-22 07:10:08 51°16.209 2°53.414 19.1077 0.024714 0.136682 -1.557753
2008-07-22 07:10:13 51°16.223 2°53.405 19.1093 0.024714 0.136682 -1.557753
2008-07-22 07:10:18 51°16.238 2°53.395 19.1066 0.025434 0.140706 -1.557753
2008-07-22 07:10:23 51°16.252 2°53.385 19.1027 0.02389 0.132187 -1.592577
2008-07-22 07:10:28 51°16.267 2°53.376 19.1098 0.024096 0.133322 -1.557753
2008-07-22 07:10:33 51°16.281 2°53.367 19.1046 0.024508 0.135594 -1.557753
2008-07-22 07:10:38 51°16.296 2°53.357 19.1027 0.025331 0.14011 -1.592577
2008-07-22 07:10:43 51°16.31 2°53.348 19.1037 0.025331 0.14011 -1.592577
2008-07-22 07:10:48 51°16.325 2°53.339 19.1047 0.024508 0.13558 -1.592577
2008-07-22 07:10:53 51°16.34 2°53.33 19.1089 0.023993 0.132739 -1.557753
2008-07-22 07:10:57 51°16.352 2°53.323 19.1106 0.023685 0.131039 -1.592577
2008-07-22 07:11:03 51°16.37 2°53.312 19.1144 0.023685 0.131088 -1.557753
2008-07-22 07:11:08 51°16.386 2°53.304 19.1132 0.025331 0.140201 -1.557753
2008-07-22 07:11:13 51°16.401 2°53.295 19.1106 0.025331 0.140201 -1.557753
2008-07-22 07:11:18 51°16.416 2°53.286 19.1174 0.024714 0.136814 -1.592577
2008-07-22 07:11:23 51°16.431 2°53.277 19.1101 0.024096 0.133422 -1.592577
2008-07-22 07:11:28 51°16.446 2°53.267 19.1137 0.024405 0.13514 -1.592577
2008-07-22 07:11:33 51°16.462 2°53.258 19.1096 0.023685 0.131163 -1.592577
2008-07-22 07:11:38 51°16.477 2°53.247 19.11 0.024817 0.137414 -1.592577
2008-07-22 07:11:43 51°16.492 2°53.238 19.1131 0.024817 0.137414 -1.592577
2008-07-22 07:11:48 51°16.508 2°53.228 19.1113 0.023582 0.13058 -1.592577
2008-07-22 07:11:53 51°16.523 2°53.219 19.1144 0.024096 0.133397 -1.592577
2008-07-22 07:11:58 51°16.539 2°53.209 19.1158 0.024817 0.137379 -1.592577
2008-07-22 07:12:03 51°16.554 2°53.199 19.1158 0.025228 0.139665 -1.557753
2008-07-22 07:12:08 51°16.569 2°53.19 19.1145 0.024919 0.137959 -1.592577
2008-07-22 07:12:13 51°16.585 2°53.18 19.1147 0.024919 0.137959 -1.592577
2008-07-22 07:12:17 51°16.597 2°53.172 19.1207 0.024302 0.13451 -1.557753
2008-07-22 07:12:23 51°16.616 2°53.16 19.1214 0.024714 0.136763 -1.557753
2008-07-22 07:12:28 51°16.631 2°53.151 19.117 0.024405 0.135053 -1.592577
2008-07-22 07:12:33 51°16.647 2°53.141 19.125 0.024611 0.136213 -1.557753
2008-07-22 07:12:38 51°16.663 2°53.132 19.1264 0.02389 0.132243 -1.592577
2008-07-22 07:12:43 51°16.678 2°53.123 19.1232 0.02389 0.132243 -1.592577
2008-07-22 07:12:48 51°16.694 2°53.115 19.1243 0.024199 0.133949 -1.557753
2008-07-22 07:12:53 51°16.71 2°53.106 19.1278 0.023788 0.131675 -1.592577
2008-07-22 07:12:58 51°16.725 2°53.097 19.1284 0.023376 0.129401 -1.557753
2008-07-22 07:13:03 51°16.741 2°53.088 19.1292 0.02389 0.13225 -1.557753
2008-07-22 07:13:08 51°16.756 2°53.079 19.1255 0.023685 0.131101 -1.592577
2008-07-22 07:13:13 51°16.772 2°53.069 19.1229 0.023685 0.131101 -1.592577
2008-07-22 07:13:18 51°16.787 2°53.06 19.126 0.024096 0.13334 -1.557753
2008-07-22 07:13:23 51°16.803 2°53.05 19.1328 0.023788 0.131651 -1.592577
2008-07-22 07:13:28 51°16.818 2°53.041 19.128 0.02389 0.132216 -1.557753
2008-07-22 07:13:33 51°16.833 2°53.031 19.1287 0.025125 0.139058 -1.557753
2008-07-22 07:13:37 51°16.845 2°53.024 19.1322 0.024508 0.135661 -1.592577
2008-07-22 07:13:43 51°16.864 2°53.013 19.1274 0.024508 0.135661 -1.592577
2008-07-22 07:13:48 51°16.879 2°53.005 19.1291 0.024919 0.137943 -1.592577
2008-07-22 07:13:53 51°16.894 2°52.995 19.1294 0.023479 0.129975 -1.592577
2008-07-22 07:13:57 51°16.906 2°52.989 19.1342 0.023993 0.13282 -1.592577
2008-07-22 07:14:03 51°16.924 2°52.977 19.1357 0.024405 0.135111 -1.592577
2008-07-22 07:14:08 51°16.94 2°52.968 19.1337 0.023067 0.127705 -1.557753
2008-07-22 07:14:13 51°16.955 2°52.959 19.1353 0.023067 0.127705 -1.557753
2008-07-22 07:14:18 51°16.97 2°52.95 19.1355 0.02317 0.128276 -1.557753
2008-07-22 07:14:23 51°16.986 2°52.941 19.1363 0.02389 0.132272 -1.592577
2008-07-22 07:14:28 51°17.001 2°52.932 19.1313 0.024199 0.133983 -1.592577
2008-07-22 07:14:33 51°17.016 2°52.922 19.1335 0.024714 0.136833 -1.592577
2008-07-22 07:14:38 51°17.032 2°52.913 19.1395 0.023376 0.129458 -1.592577
2008-07-22 07:14:43 51°17.048 2°52.903 19.1385 0.023376 0.129458 -1.592577
2008-07-22 07:14:48 51°17.063 2°52.894 19.137 0.023582 0.130593 -1.557753
2008-07-22 07:14:53 51°17.079 2°52.885 19.1368 0.023067 0.127763 -1.557753
2008-07-22 07:14:58 51°17.094 2°52.875 19.1392 0.023376 0.129478 -1.592577
2008-07-22 07:15:03 51°17.11 2°52.866 19.1419 0.024714 0.13687 -1.557753
2008-07-22 07:15:08 51°17.126 2°52.857 19.1457 0.023067 0.127755 -1.557753
2008-07-22 07:15:13 51°17.141 2°52.848 19.1493 0.023067 0.127755 -1.557753
2008-07-22 07:15:17 51°17.154 2°52.841 19.1464 0.025331 0.140247 -1.592577
2008-07-22 07:15:23 51°17.172 2°52.83 19.1434 0.024199 0.133981 -1.592577
2008-07-22 07:15:28 51°17.187 2°52.821 19.1496 0.024405 0.135095 -1.557753
2008-07-22 07:15:33 51°17.203 2°52.812 19.1488 0.023376 0.129404 -1.592577
2008-07-22 07:15:37 51°17.215 2°52.805 19.1494 0.023685 0.131092 -1.592577
2008-07-22 07:15:43 51°17.234 2°52.795 19.1496 0.023685 0.131092 -1.592577
2008-07-22 07:15:48 51°17.249 2°52.785 19.1459 0.023788 0.131669 -1.557753
2008-07-22 07:15:53 51°17.265 2°52.776 19.1427 0.022964 0.127143 -1.592577
2008-07-22 07:15:57 51°17.277 2°52.769 19.1443 0.024611 0.136248 -1.557753
2008-07-22 07:16:03 51°17.296 2°52.76 19.15 0.024302 0.134572 -1.557753
2008-07-22 07:16:08 51°17.312 2°52.752 19.1482 0.024714 0.136917 -1.592577
2008-07-22 07:16:13 51°17.328 2°52.744 19.1542 0.024714 0.136917 -1.592577
2008-07-22 07:16:17 51°17.34 2°52.738 19.156 0.024302 0.134672 -1.557753
2008-07-22 07:16:23 51°17.359 2°52.729 19.1505 0.023993 0.132982 -1.557753
2008-07-22 07:16:28 51°17.375 2°52.721 19.1492 0.024405 0.135255 -1.592577
2008-07-22 07:16:33 51°17.391 2°52.714 19.1535 0.02389 0.1324 -1.592577
2008-07-22 07:16:37 51°17.404 2°52.708 19.1534 0.022964 0.127278 -1.592577
2008-07-22 07:16:43 51°17.423 2°52.698 19.1527 0.022964 0.127278 -1.592577
2008-07-22 07:16:48 51°17.439 2°52.691 19.1611 0.023479 0.130107 -1.592577
2008-07-22 07:16:53 51°17.455 2°52.683 19.1617 0.024508 0.13579 -1.592577
2008-07-22 07:16:57 51°17.468 2°52.676 19.1545 0.024302 0.134636 -1.557753
2008-07-22 07:17:03 51°17.486 2°52.667 19.161 0.023788 0.131762 -1.557753
2008-07-22 07:17:08 51°17.502 2°52.659 19.1583 0.025228 0.13972 -1.557753
2008-07-22 07:17:13 51°17.518 2°52.651 19.1646 0.025228 0.13972 -1.557753
2008-07-22 07:17:17 51°17.531 2°52.645 19.1594 0.024405 0.135168 -1.592577
2008-07-22 07:17:23 51°17.549 2°52.635 19.1567 0.024096 0.133431 -1.592577
2008-07-22 07:17:28 51°17.565 2°52.627 19.1661 0.024919 0.137983 -1.592577
2008-07-22 07:17:33 51°17.581 2°52.619 19.1671 0.024302 0.134604 -1.592577
2008-07-22 07:17:37 51°17.594 2°52.612 19.1698 0.024714 0.136875 -1.557753
2008-07-22 07:17:43 51°17.613 2°52.602 19.1696 0.024714 0.136875 -1.557753
2008-07-22 07:17:48 51°17.628 2°52.594 19.1693 0.025537 0.141422 -1.592577
2008-07-22 07:17:53 51°17.644 2°52.586 19.1653 0.025125 0.139169 -1.592577
2008-07-22 07:17:57 51°17.656 2°52.579 19.1667 0.024405 0.135159 -1.592577
2008-07-22 07:18:03 51°17.675 2°52.57 19.1654 0.02389 0.132301 -1.557753
2008-07-22 07:18:08 51°17.691 2°52.561 19.1695 0.024508 0.13573 -1.592577
2008-07-22 07:18:13 51°17.707 2°52.554 19.1703 0.024508 0.13573 -1.592577
2008-07-22 07:18:18 51°17.723 2°52.545 19.1736 0.024817 0.137468 -1.592577
2008-07-22 07:18:23 51°17.738 2°52.537 19.1742 0.023993 0.132919 -1.557753
2008-07-22 07:18:28 51°17.754 2°52.528 19.1754 0.02389 0.13235 -1.592577
2008-07-22 07:18:33 51°17.77 2°52.519 19.1746 0.023479 0.130076 -1.557753
2008-07-22 07:18:37 51°17.782 2°52.511 19.1765 0.024611 0.136327 -1.592577
2008-07-22 07:18:43 51°17.801 2°52.5 19.1703 0.024611 0.136327 -1.592577
2008-07-22 07:18:48 51°17.816 2°52.49 19.1767 0.023993 0.132901 -1.557753
2008-07-22 07:18:53 51°17.832 2°52.48 19.1783 0.024919 0.138011 -1.592577
2008-07-22 07:18:58 51°17.847 2°52.471 19.1784 0.024714 0.136863 -1.592577
2008-07-22 07:19:03 51°17.862 2°52.461 19.1786 0.023685 0.131156 -1.557753
2008-07-22 07:19:08 51°17.878 2°52.452 19.1775 0.023273 0.1289 -1.557753
2008-07-22 07:19:13 51°17.893 2°52.443 19.1803 0.023273 0.1289 -1.557753
2008-07-22 07:19:18 51°17.909 2°52.433 19.1788 0.024199 0.134047 -1.557753
2008-07-22 07:19:23 51°17.925 2°52.424 19.1825 0.023685 0.131205 -1.592577
2008-07-22 07:19:28 51°17.94 2°52.414 19.1827 0.023376 0.129493 -1.557753
2008-07-22 07:19:33 51°17.956 2°52.405 19.1773 0.023582 0.130644 -1.557753
2008-07-22 07:19:38 51°17.971 2°52.395 19.1812 0.025022 0.138656 -1.592577
2008-07-22 07:19:43 51°17.986 2°52.386 19.1782 0.025022 0.138656 -1.592577
2008-07-22 07:19:48 51°18.002 2°52.376 19.1794 0.024302 0.134654 -1.592577
2008-07-22 07:19:53 51°18.018 2°52.368 19.1812 0.024302 0.134638 -1.592577
2008-07-22 07:19:57 51°18.03 2°52.36 19.1809 0.025228 0.139763 -1.557753
2008-07-22 07:20:03 51°18.049 2°52.35 19.1834 0.024405 0.135205 -1.592577
2008-07-22 07:20:08 51°18.064 2°52.34 19.1846 0.023376 0.129511 -1.592577
2008-07-22 07:20:13 51°18.08 2°52.332 19.186 0.023376 0.129511 -1.592577
2008-07-22 07:20:17 51°18.093 2°52.325 19.1868 0.023067 0.127802 -1.557753
2008-07-22 07:20:23 51°18.112 2°52.315 19.1866 0.02245 0.124403 -1.592577
2008-07-22 07:20:28 51°18.127 2°52.308 19.1858 0.024817 0.137484 -1.592577
2008-07-22 07:20:33 51°18.143 2°52.299 19.1902 0.025331 0.140333 -1.592577
2008-07-22 07:20:37 51°18.156 2°52.293 19.194 0.024199 0.134076 -1.557753
2008-07-22 07:20:43 51°18.175 2°52.284 19.1951 0.024199 0.134076 -1.557753
2008-07-22 07:20:48 51°18.191 2°52.276 19.1946 0.024611 0.136434 -1.592577
2008-07-22 07:20:53 51°18.207 2°52.268 19.1873 0.024714 0.137003 -1.592577
2008-07-22 07:20:57 51°18.219 2°52.262 19.1891 0.024919 0.138108 -1.557753
2008-07-22 07:21:03 51°18.238 2°52.252 19.1948 0.024919 0.138056 -1.592577
2008-07-22 07:21:08 51°18.254 2°52.244 19.1962 0.023685 0.131221 -1.557753
2008-07-22 07:21:13 51°18.27 2°52.236 19.1914 0.023685 0.131221 -1.557753
2008-07-22 07:21:17 51°18.283 2°52.23 19.1971 0.023479 0.130076 -1.557753
2008-07-22 07:21:23 51°18.302 2°52.22 19.202 0.025125 0.139174 -1.592577
2008-07-22 07:21:28 51°18.318 2°52.212 19.1952 0.024302 0.134608 -1.592577
2008-07-22 07:21:33 51°18.334 2°52.203 19.1994 0.024405 0.135191 -1.592577
2008-07-22 07:21:37 51°18.346 2°52.196 19.2001 0.023788 0.131789 -1.557753
2008-07-22 07:21:43 51°18.365 2°52.186 19.1996 0.023788 0.131789 -1.557753
2008-07-22 07:21:48 51°18.381 2°52.177 19.2033 0.023479 0.130092 -1.592577
2008-07-22 07:21:53 51°18.397 2°52.168 19.2021 0.024096 0.133514 -1.592577
2008-07-22 07:21:57 51°18.41 2°52.161 19.2037 0.025022 0.138666 -1.592577
2008-07-22 07:22:03 51°18.429 2°52.151 19.2019 0.024714 0.136954 -1.557753
2008-07-22 07:22:08 51°18.444 2°52.142 19.205 0.023376 0.129552 -1.592577
2008-07-22 07:22:13 51°18.46 2°52.134 19.2097 0.023376 0.129552 -1.592577
2008-07-22 07:22:17 51°18.473 2°52.127 19.211 0.025434 0.140927 -1.592577
2008-07-22 07:22:23 51°18.492 2°52.117 19.2119 0.024714 0.136922 -1.592577
2008-07-22 07:22:28 51°18.508 2°52.108 19.2096 0.02389 0.132377 -1.592577
2008-07-22 07:22:33 51°18.523 2°52.1 19.2057 0.023993 0.132962 -1.592577
2008-07-22 07:22:38 51°18.539 2°52.091 19.2007 0.024611 0.13642 -1.592577
2008-07-22 07:22:43 51°18.555 2°52.084 19.2072 0.024611 0.13642 -1.592577
2008-07-22 07:22:48 51°18.571 2°52.077 19.2135 0.024302 0.134743 -1.592577
2008-07-22 07:22:53 51°18.587 2°52.071 19.2094 0.02389 0.13246 -1.557753
2008-07-22 07:22:57 51°18.6 2°52.066 19.2113 0.023993 0.133027 -1.592577
2008-07-22 07:23:03 51°18.62 2°52.059 19.2093 0.024714 0.137008 -1.557753
2008-07-22 07:23:08 51°18.636 2°52.055 19.2099 0.024508 0.13585 -1.557753
2008-07-22 07:23:13 51°18.653 2°52.05 19.2179 0.024508 0.13585 -1.557753
2008-07-22 07:23:18 51°18.669 2°52.046 19.211 0.024096 0.133564 -1.592577
2008-07-22 07:23:23 51°18.685 2°52.042 19.223 0.024405 0.135269 -1.557753
2008-07-22 07:23:28 51°18.702 2°52.038 19.2218 0.024302 0.134695 -1.592577
2008-07-22 07:23:33 51°18.718 2°52.034 19.2159 0.024919 0.138093 -1.557753
2008-07-22 07:23:38 51°18.734 2°52.029 19.2176 0.024611 0.13638 -1.592577
2008-07-22 07:23:43 51°18.751 2°52.025 19.2177 0.024611 0.13638 -1.592577
2008-07-22 07:23:48 51°18.767 2°52.02 19.2167 0.024199 0.134108 -1.557753
2008-07-22 07:23:53 51°18.784 2°52.016 19.2164 0.02389 0.132404 -1.592577
2008-07-22 07:23:58 51°18.8 2°52.011 19.2208 0.024405 0.135255 -1.557753
2008-07-22 07:24:03 51°18.817 2°52.006 19.2196 0.024302 0.134684 -1.557753
2008-07-22 07:24:08 51°18.833 2°52.002 19.2257 0.023788 0.131849 -1.592577
2008-07-22 07:24:13 51°18.85 2°51.997 19.2294 0.023788 0.131849 -1.592577
2008-07-22 07:24:17 51°18.863 2°51.994 19.2282 0.025022 0.138682 -1.592577
2008-07-22 07:24:23 51°18.883 2°51.989 19.2294 0.024302 0.1347 -1.557753
2008-07-22 07:24:28 51°18.899 2°51.984 19.2341 0.023993 0.132998 -1.592577
2008-07-22 07:24:33 51°18.915 2°51.98 19.2249 0.024199 0.13414 -1.557753
2008-07-22 07:24:37 51°18.929 2°51.975 19.2343 0.024405 0.135267 -1.592577
2008-07-22 07:24:43 51°18.948 2°51.97 19.2254 0.024405 0.135267 -1.592577
2008-07-22 07:24:48 51°18.964 2°51.965 19.23 0.024714 0.136968 -1.557753
2008-07-22 07:24:53 51°18.98 2°51.96 19.2304 0.024199 0.134126 -1.592577
2008-07-22 07:24:57 51°18.993 2°51.955 19.2366 0.023479 0.130142 -1.592577
2008-07-22 07:25:03 51°19.013 2°51.95 19.2377 0.023685 0.131314 -1.557753
2008-07-22 07:25:08 51°19.029 2°51.945 19.2324 0.024096 0.133596 -1.592577
2008-07-22 07:25:13 51°19.045 2°51.941 19.2318 0.024096 0.133596 -1.592577
2008-07-22 07:25:17 51°19.058 2°51.936 19.2347 0.024199 0.134163 -1.592577
2008-07-22 07:25:23 51°19.077 2°51.93 19.2343 0.022964 0.127327 -1.592577
2008-07-22 07:25:28 51°19.093 2°51.924 19.2372 0.024405 0.135274 -1.557753
2008-07-22 07:25:33 51°19.109 2°51.919 19.2402 0.023685 0.131301 -1.592577
2008-07-22 07:25:38 51°19.125 2°51.912 19.2356 0.023376 0.129587 -1.557753
2008-07-22 07:25:43 51°19.14 2°51.908 19.2369 0.023376 0.129587 -1.557753
2008-07-22 07:25:48 51°19.156 2°51.902 19.2433 0.023582 0.130704 -1.557753
2008-07-22 07:25:53 51°19.172 2°51.897 19.2464 0.024508 0.135825 -1.557753
2008-07-22 07:25:57 51°19.185 2°51.893 19.2451 0.023685 0.131276 -1.557753
2008-07-22 07:26:03 51°19.204 2°51.888 19.2489 0.023067 0.127856 -1.592577
2008-07-22 07:26:08 51°19.22 2°51.883 19.2441 0.024096 0.133546 -1.592577
2008-07-22 07:26:13 51°19.236 2°51.878 19.2485 0.024096 0.133546 -1.592577
2008-07-22 07:26:18 51°19.252 2°51.873 19.25 0.024199 0.13414 -1.557753
2008-07-22 07:26:23 51°19.268 2°51.867 19.2507 0.024405 0.135283 -1.557753
2008-07-22 07:26:28 51°19.284 2°51.862 19.2526 0.023479 0.130166 -1.592577
2008-07-22 07:26:33 51°19.299 2°51.857 19.2574 0.023479 0.130155 -1.557753
2008-07-22 07:26:38 51°19.315 2°51.851 19.2538 0.024302 0.134693 -1.557753
2008-07-22 07:26:43 51°19.331 2°51.846 19.2487 0.024302 0.134693 -1.557753
2008-07-22 07:26:48 51°19.347 2°51.84 19.2531 0.023993 0.132975 -1.592577
2008-07-22 07:26:53 51°19.362 2°51.835 19.2499 0.024508 0.135825 -1.592577
2008-07-22 07:26:58 51°19.378 2°51.829 19.2511 0.024714 0.136954 -1.592577
2008-07-22 07:27:03 51°19.393 2°51.824 19.2539 0.024611 0.136378 -1.557753
2008-07-22 07:27:08 51°19.409 2°51.819 19.2568 0.02389 0.1324 -1.557753
2008-07-22 07:27:13 51°19.425 2°51.813 19.2556 0.02389 0.1324 -1.557753
2008-07-22 07:27:17 51°19.438 2°51.809 19.2622 0.02389 0.132389 -1.557753
2008-07-22 07:27:23 51°19.457 2°51.803 19.2549 0.024508 0.135797 -1.592577
2008-07-22 07:27:28 51°19.473 2°51.798 19.2531 0.024302 0.134679 -1.592577
2008-07-22 07:27:33 51°19.489 2°51.793 19.2597 0.024405 0.13526 -1.592577
2008-07-22 07:27:38 51°19.505 2°51.789 19.261 0.022964 0.127286 -1.592577
2008-07-22 07:27:43 51°19.521 2°51.785 19.2627 0.022964 0.127286 -1.592577
2008-07-22 07:27:48 51°19.537 2°51.781 19.2679 0.022861 0.126723 -1.557753
2008-07-22 07:27:53 51°19.553 2°51.777 19.2572 0.024817 0.137545 -1.592577
2008-07-22 07:27:58 51°19.568 2°51.773 19.2627 0.024405 0.135258 -1.592577
2008-07-22 07:28:03 51°19.584 2°51.769 19.2655 0.023993 0.132957 -1.557753
2008-07-22 07:28:08 51°19.6 2°51.765 19.2658 0.024096 0.133537 -1.592577
2008-07-22 07:28:13 51°19.616 2°51.761 19.2664 0.024096 0.133537 -1.592577
2008-07-22 07:28:18 51°19.632 2°51.756 19.261 0.023582 0.130706 -1.557753
2008-07-22 07:28:23 51°19.648 2°51.751 19.2689 0.02389 0.132411 -1.557753
2008-07-22 07:28:28 51°19.664 2°51.747 19.2673 0.024405 0.135283 -1.592577
2008-07-22 07:28:33 51°19.68 2°51.743 19.2692 0.02389 0.132415 -1.557753
2008-07-22 07:28:38 51°19.695 2°51.739 19.2694 0.023993 0.132977 -1.557753
2008-07-22 07:28:43 51°19.712 2°51.735 19.2744 0.023993 0.132977 -1.557753
2008-07-22 07:28:48 51°19.728 2°51.731 19.274 0.023993 0.132982 -1.592577
2008-07-22 07:28:53 51°19.743 2°51.727 19.2661 0.023067 0.127884 -1.592577
2008-07-22 07:28:58 51°19.759 2°51.723 19.2719 0.024817 0.137557 -1.592577
2008-07-22 07:29:03 51°19.776 2°51.718 19.2807 0.023479 0.13016 -1.592577
2008-07-22 07:29:08 51°19.792 2°51.714 19.2764 0.024199 0.134138 -1.557753
2008-07-22 07:29:13 51°19.808 2°51.709 19.2735 0.024199 0.134138 -1.557753
2008-07-22 07:29:17 51°19.82 2°51.705 19.28 0.023788 0.13186 -1.592577
2008-07-22 07:29:23 51°19.84 2°51.7 19.2817 0.024919 0.138124 -1.557753
2008-07-22 07:29:28 51°19.855 2°51.695 19.2784 0.023993 0.133002 -1.592577
2008-07-22 07:29:33 51°19.871 2°51.692 19.2784 0.02389 0.132427 -1.592577
2008-07-22 07:29:38 51°19.887 2°51.687 19.2794 0.023993 0.132991 -1.592577
2008-07-22 07:29:43 51°19.903 2°51.684 19.2771 0.023993 0.132991 -1.592577
2008-07-22 07:29:48 51°19.919 2°51.68 19.2759 0.022758 0.126171 -1.557753
2008-07-22 07:29:53 51°19.935 2°51.676 19.2785 0.022758 0.126163 -1.557753
2008-07-22 07:29:58 51°19.951 2°51.672 19.284 0.02389 0.132418 -1.592577
2008-07-22 07:30:03 51°19.967 2°51.669 19.2886 0.023685 0.131299 -1.592577
2008-07-22 07:30:08 51°19.983 2°51.666 19.2821 0.023067 0.127892 -1.592577
2008-07-22 07:30:13 51°19.999 2°51.662 19.2858 0.023067 0.127892 -1.592577
2008-07-22 07:30:18 51°20.015 2°51.659 19.2907 0.024405 0.135324 -1.557753
2008-07-22 07:30:23 51°20.031 2°51.655 19.2855 0.024199 0.134186 -1.592577
2008-07-22 07:30:28 51°20.047 2°51.651 19.2899 0.02389 0.132474 -1.592577
2008-07-22 07:30:33 51°20.063 2°51.649 19.2896 0.024302 0.134753 -1.557753
2008-07-22 07:30:37 51°20.076 2°51.646 19.2972 0.02389 0.132469 -1.557753
2008-07-22 07:30:43 51°20.096 2°51.643 19.2967 0.02389 0.132469 -1.557753
2008-07-22 07:30:48 51°20.112 2°51.639 19.2975 0.02389 0.13246 -1.592577
2008-07-22 07:30:53 51°20.128 2°51.636 19.3005 0.024302 0.134748 -1.592577
2008-07-22 07:30:58 51°20.144 2°51.633 19.2985 0.023788 0.131903 -1.592577
2008-07-22 07:31:03 51°20.16 2°51.63 19.2996 0.023273 0.129059 -1.557753
2008-07-22 07:31:08 51°20.176 2°51.626 19.3017 0.023582 0.130746 -1.592577
2008-07-22 07:31:13 51°20.193 2°51.623 19.2985 0.023582 0.130746 -1.592577
2008-07-22 07:31:18 51°20.209 2°51.619 19.3042 0.02389 0.132456 -1.557753
2008-07-22 07:31:23 51°20.225 2°51.616 19.2998 0.023479 0.130186 -1.592577
2008-07-22 07:31:28 51°20.241 2°51.612 19.3005 0.023685 0.131323 -1.592577
2008-07-22 07:31:33 51°20.257 2°51.609 19.2984 0.023788 0.131883 -1.557753
2008-07-22 07:31:38 51°20.274 2°51.606 19.3014 0.023067 0.127903 -1.592577
2008-07-22 07:31:43 51°20.29 2°51.603 19.3025 0.023067 0.127903 -1.592577
2008-07-22 07:31:48 51°20.306 2°51.6 19.3059 0.023376 0.129629 -1.592577
2008-07-22 07:31:53 51°20.322 2°51.597 19.3064 0.024714 0.137041 -1.557753
2008-07-22 07:31:57 51°20.335 2°51.594 19.3046 0.024199 0.134199 -1.592577
2008-07-22 07:32:03 51°20.355 2°51.591 19.3088 0.024508 0.13591 -1.557753
2008-07-22 07:32:08 51°20.371 2°51.588 19.3085 0.023582 0.130761 -1.592577
2008-07-22 07:32:13 51°20.387 2°51.584 19.3117 0.023582 0.130761 -1.592577
2008-07-22 07:32:18 51°20.403 2°51.581 19.3152 0.023993 0.133018 -1.592577
2008-07-22 07:32:23 51°20.419 2°51.578 19.3059 0.023582 0.130739 -1.592577
2008-07-22 07:32:28 51°20.436 2°51.574 19.3069 0.023582 0.130746 -1.592577
2008-07-22 07:32:33 51°20.452 2°51.571 19.3072 0.024302 0.134737 -1.592577
2008-07-22 07:32:38 51°20.468 2°51.569 19.3136 0.023273 0.129059 -1.557753
2008-07-22 07:32:43 51°20.485 2°51.566 19.309 0.023273 0.129059 -1.557753
2008-07-22 07:32:48 51°20.501 2°51.563 19.3153 0.023376 0.129642 -1.592577
2008-07-22 07:32:53 51°20.518 2°51.561 19.3173 0.023067 0.127944 -1.592577
2008-07-22 07:32:58 51°20.534 2°51.557 19.3134 0.023376 0.129638 -1.592577
2008-07-22 07:33:03 51°20.551 2°51.555 19.3112 0.024199 0.134179 -1.592577
2008-07-22 07:33:08 51°20.567 2°51.552 19.3115 0.024817 0.137597 -1.592577
2008-07-22 07:33:13 51°20.584 2°51.55 19.3196 0.024817 0.137597 -1.592577
2008-07-22 07:33:18 51°20.6 2°51.547 19.3246 0.023273 0.129065 -1.592577
2008-07-22 07:33:23 51°20.617 2°51.545 19.3227 0.023685 0.131341 -1.557753
2008-07-22 07:33:28 51°20.633 2°51.542 19.3221 0.023582 0.130779 -1.592577
2008-07-22 07:33:33 51°20.649 2°51.539 19.3215 0.02317 0.128506 -1.592577
2008-07-22 07:33:38 51°20.666 2°51.535 19.319 0.024096 0.133621 -1.592577
2008-07-22 07:33:43 51°20.682 2°51.532 19.3203 0.024096 0.133621 -1.592577
2008-07-22 07:33:48 51°20.698 2°51.528 19.3166 0.023582 0.130777 -1.592577
2008-07-22 07:33:53 51°20.714 2°51.525 19.3219 0.023788 0.131896 -1.557753
2008-07-22 07:33:57 51°20.728 2°51.523 19.3219 0.02389 0.132447 -1.557753
2008-07-22 07:34:03 51°20.747 2°51.52 19.3211 0.024096 0.133589 -1.557753
2008-07-22 07:34:08 51°20.763 2°51.517 19.3228 0.024096 0.133578 -1.592577
2008-07-22 07:34:13 51°20.78 2°51.515 19.3343 0.024096 0.133578 -1.592577
2008-07-22 07:34:18 51°20.796 2°51.513 19.3366 0.023685 0.131327 -1.592577
2008-07-22 07:34:23 51°20.813 2°51.51 19.3288 0.024199 0.134186 -1.592577
2008-07-22 07:34:28 51°20.828 2°51.508 19.3293 0.025125 0.139309 -1.557753
2008-07-22 07:34:33 51°20.844 2°51.506 19.3305 0.024919 0.138171 -1.592577
2008-07-22 07:34:38 51°20.861 2°51.503 19.3309 0.024199 0.134174 -1.592577
2008-07-22 07:34:43 51°20.877 2°51.501 19.332 0.024199 0.134174 -1.592577
2008-07-22 07:34:48 51°20.893 2°51.499 19.3324 0.024919 0.138164 -1.557753
2008-07-22 07:34:53 51°20.909 2°51.497 19.3395 0.024096 0.133603 -1.592577
2008-07-22 07:34:58 51°20.925 2°51.493 19.3351 0.023479 0.130188 -1.592577
2008-07-22 07:35:03 51°20.941 2°51.491 19.3407 0.025228 0.139882 -1.557753
2008-07-22 07:35:08 51°20.958 2°51.488 19.3454 0.02389 0.132481 -1.557753
2008-07-22 07:35:13 51°20.974 2°51.486 19.3472 0.02389 0.132481 -1.557753
2008-07-22 07:35:17 51°20.987 2°51.483 19.3389 0.024405 0.135322 -1.557753
2008-07-22 07:35:23 51°21.006 2°51.48 19.3412 0.024199 0.134197 -1.557753
2008-07-22 07:35:28 51°21.023 2°51.477 19.3368 0.024096 0.133623 -1.557753
2008-07-22 07:35:33 51°21.039 2°51.474 19.3448 0.024302 0.134755 -1.592577
2008-07-22 07:35:38 51°21.055 2°51.471 19.3397 0.024508 0.135896 -1.592577
2008-07-22 07:35:43 51°21.072 2°51.468 19.3433 0.024508 0.135896 -1.592577
2008-07-22 07:35:48 51°21.088 2°51.464 19.3495 0.023685 0.131352 -1.557753
2008-07-22 07:35:53 51°21.105 2°51.461 19.3428 0.023788 0.131923 -1.592577
2008-07-22 07:35:58 51°21.121 2°51.458 19.3433 0.024714 0.137052 -1.557753
2008-07-22 07:36:03 51°21.137 2°51.455 19.3499 0.024611 0.136473 -1.557753
2008-07-22 07:36:08 51°21.154 2°51.452 19.354 0.02389 0.132485 -1.592577
2008-07-22 07:36:13 51°21.17 2°51.449 19.3506 0.02389 0.132485 -1.592577
2008-07-22 07:36:18 51°21.186 2°51.447 19.3481 0.023993 0.133056 -1.592577
2008-07-22 07:36:23 51°21.203 2°51.445 19.3561 0.023273 0.129063 -1.592577
2008-07-22 07:36:28 51°21.219 2°51.443 19.3485 0.023582 0.130748 -1.592577
2008-07-22 07:36:33 51°21.235 2°51.442 19.3544 0.024302 0.134734 -1.592577
2008-07-22 07:36:37 51°21.249 2°51.44 19.3498 0.024714 0.137034 -1.557753
2008-07-22 07:36:43 51°21.268 2°51.438 19.3641 0.024714 0.137034 -1.557753
2008-07-22 07:36:48 51°21.285 2°51.436 19.3622 0.024199 0.134195 -1.592577
2008-07-22 07:36:53 51°21.301 2°51.435 19.3666 0.024714 0.137036 -1.592577
2008-07-22 07:36:58 51°21.317 2°51.433 19.3651 0.024199 0.134202 -1.592577
2008-07-22 07:37:03 51°21.333 2°51.431 19.3585 0.024199 0.134204 -1.592577
2008-07-22 07:37:08 51°21.349 2°51.429 19.3601 0.024199 0.134215 -1.592577
2008-07-22 07:37:13 51°21.365 2°51.428 19.3666 0.024199 0.134215 -1.592577
2008-07-22 07:37:18 51°21.381 2°51.426 19.3595 0.023993 0.133088 -1.557753
2008-07-22 07:37:23 51°21.398 2°51.424 19.3694 0.02389 0.132514 -1.592577
2008-07-22 07:37:28 51°21.414 2°51.423 19.3655 0.02389 0.132499 -1.592577
2008-07-22 07:37:33 51°21.43 2°51.42 19.3603 0.023993 0.133054 -1.557753
2008-07-22 07:37:38 51°21.446 2°51.418 19.3607 0.023993 0.133045 -1.592577
2008-07-22 07:37:43 51°21.462 2°51.415 19.3684 0.023993 0.133045 -1.592577
2008-07-22 07:37:48 51°21.478 2°51.413 19.3676 0.023582 0.130779 -1.592577
2008-07-22 07:37:53 51°21.494 2°51.411 19.3658 0.024199 0.134199 -1.557753
2008-07-22 07:37:57 51°21.507 2°51.41 19.3694 0.024199 0.134181 -1.592577
2008-07-22 07:38:03 51°21.527 2°51.408 19.369 0.023993 0.133038 -1.592577
2008-07-22 07:38:08 51°21.543 2°51.406 19.3704 0.024919 0.138164 -1.557753
2008-07-22 07:38:13 51°21.56 2°51.404 19.3651 0.024919 0.138164 -1.557753
2008-07-22 07:38:18 51°21.576 2°51.403 19.371 0.023067 0.127938 -1.592577
2008-07-22 07:38:23 51°21.593 2°51.401 19.3796 0.024199 0.134204 -1.592577
2008-07-22 07:38:28 51°21.609 2°51.4 19.3763 0.024817 0.137641 -1.557753
2008-07-22 07:38:33 51°21.625 2°51.398 19.3799 0.023273 0.129093 -1.592577
2008-07-22 07:38:38 51°21.642 2°51.397 19.3771 0.023685 0.131363 -1.557753
2008-07-22 07:38:43 51°21.658 2°51.395 19.3854 0.023685 0.131363 -1.557753
2008-07-22 07:38:48 51°21.675 2°51.393 19.3872 0.023067 0.127944 -1.557753
2008-07-22 07:38:53 51°21.692 2°51.392 19.3878 0.023788 0.13193 -1.557753
2008-07-22 07:38:58 51°21.708 2°51.39 19.3865 0.023479 0.130235 -1.592577
2008-07-22 07:39:03 51°21.724 2°51.388 19.3884 0.023376 0.129662 -1.557753
2008-07-22 07:39:08 51°21.741 2°51.386 19.3909 0.02389 0.132499 -1.557753
2008-07-22 07:39:13 51°21.757 2°51.384 19.3919 0.02389 0.132499 -1.557753
2008-07-22 07:39:17 51°21.77 2°51.382 19.3817 0.025022 0.138765 -1.592577
2008-07-22 07:39:23 51°21.789 2°51.379 19.3891 0.023479 0.130228 -1.592577
2008-07-22 07:39:28 51°21.805 2°51.377 19.3838 0.024199 0.134204 -1.592577
2008-07-22 07:39:33 51°21.822 2°51.376 19.3893 0.025125 0.139331 -1.557753
2008-07-22 07:39:38 51°21.838 2°51.374 19.3991 0.02389 0.132494 -1.557753
2008-07-22 07:39:43 51°21.854 2°51.372 19.391 0.02389 0.132494 -1.557753
2008-07-22 07:39:48 51°21.871 2°51.369 19.3976 0.023685 0.131359 -1.592577
2008-07-22 07:39:53 51°21.887 2°51.366 19.3919 0.024611 0.136473 -1.557753
2008-07-22 07:39:58 51°21.903 2°51.364 19.3953 0.024817 0.137611 -1.592577
2008-07-22 07:40:03 51°21.92 2°51.361 19.3934 0.023788 0.131923 -1.592577
2008-07-22 07:40:08 51°21.936 2°51.359 19.3975 0.023993 0.133056 -1.592577
2008-07-22 07:40:13 51°21.953 2°51.356 19.4035 0.023993 0.133056 -1.592577
2008-07-22 07:40:18 51°21.969 2°51.353 19.4037 0.024199 0.134192 -1.557753
2008-07-22 07:40:23 51°21.986 2°51.35 19.3989 0.024199 0.134197 -1.557753
2008-07-22 07:40:28 51°22.002 2°51.346 19.399 0.023788 0.131916 -1.557753
2008-07-22 07:40:33 51°22.019 2°51.343 19.4037 0.023788 0.13191 -1.592577
2008-07-22 07:40:37 51°22.032 2°51.34 19.3969 0.024919 0.138174 -1.592577
2008-07-22 07:40:43 51°22.051 2°51.336 19.4066 0.024919 0.138174 -1.592577
2008-07-22 07:40:48 51°22.068 2°51.333 19.4023 0.02389 0.132494 -1.557753
2008-07-22 07:40:53 51°22.084 2°51.33 19.3987 0.024302 0.13478 -1.592577
2008-07-22 07:40:58 51°22.101 2°51.327 19.4038 0.024611 0.136485 -1.557753
2008-07-22 07:41:03 51°22.117 2°51.323 19.415 0.023788 0.131923 -1.557753
2008-07-22 07:41:08 51°22.134 2°51.321 19.4054 0.024714 0.137064 -1.592577
2008-07-22 07:41:13 51°22.15 2°51.319 19.4083 0.024714 0.137064 -1.592577
2008-07-22 07:41:18 51°22.167 2°51.316 19.4117 0.024508 0.135922 -1.592577
2008-07-22 07:41:23 51°22.184 2°51.313 19.4163 0.023685 0.131376 -1.557753
2008-07-22 07:41:28 51°22.2 2°51.311 19.4137 0.024302 0.134771 -1.592577
2008-07-22 07:41:33 51°22.216 2°51.308 19.4189 0.02389 0.13249 -1.592577
2008-07-22 07:41:38 51°22.233 2°51.306 19.4086 0.024302 0.134803 -1.592577
2008-07-22 07:41:43 51°22.249 2°51.304 19.4191 0.024302 0.134803 -1.592577
2008-07-22 07:41:48 51°22.266 2°51.302 19.4174 0.023993 0.133122 -1.592577
2008-07-22 07:41:53 51°22.282 2°51.3 19.4105 0.023582 0.13085 -1.592577
2008-07-22 07:41:57 51°22.295 2°51.298 19.415 0.023993 0.133124 -1.592577
2008-07-22 07:42:03 51°22.315 2°51.294 19.42 0.024611 0.136536 -1.592577
2008-07-22 07:42:08 51°22.332 2°51.293 19.416 0.025331 0.140513 -1.557753
2008-07-22 07:42:13 51°22.348 2°51.29 19.4221 0.025331 0.140513 -1.557753
2008-07-22 07:42:18 51°22.364 2°51.287 19.4207 0.023582 0.130805 -1.557753
2008-07-22 07:42:23 51°22.381 2°51.284 19.4291 0.024508 0.135908 -1.592577
2008-07-22 07:42:28 51°22.397 2°51.28 19.4325 0.024919 0.138181 -1.592577
2008-07-22 07:42:33 51°22.413 2°51.278 19.4265 0.023582 0.13077 -1.557753
2008-07-22 07:42:38 51°22.429 2°51.274 19.4297 0.022656 0.125672 -1.592577
2008-07-22 07:42:43 51°22.446 2°51.272 19.4288 0.022656 0.125672 -1.592577
2008-07-22 07:42:48 51°22.462 2°51.269 19.4261 0.024199 0.134204 -1.592577
2008-07-22 07:42:53 51°22.479 2°51.266 19.4324 0.023788 0.131939 -1.592577
2008-07-22 07:42:58 51°22.495 2°51.263 19.4315 0.02317 0.128521 -1.592577
2008-07-22 07:43:03 51°22.512 2°51.26 19.4335 0.023067 0.127953 -1.557753
2008-07-22 07:43:08 51°22.528 2°51.258 19.4309 0.02317 0.128538 -1.592577
2008-07-22 07:43:13 51°22.545 2°51.255 19.4293 0.02317 0.128538 -1.592577
2008-07-22 07:43:18 51°22.561 2°51.252 19.4331 0.022964 0.127419 -1.557753
2008-07-22 07:43:23 51°22.578 2°51.249 19.4381 0.023582 0.130834 -1.592577
2008-07-22 07:43:28 51°22.595 2°51.246 19.4398 0.022347 0.124008 -1.592577
2008-07-22 07:43:33 51°22.611 2°51.243 19.4313 0.022861 0.126837 -1.592577
2008-07-22 07:43:38 51°22.628 2°51.24 19.4424 0.023788 0.131945 -1.592577
2008-07-22 07:43:43 51°22.644 2°51.237 19.4325 0.023788 0.131945 -1.592577
2008-07-22 07:43:48 51°22.661 2°51.234 19.4338 0.024611 0.136501 -1.557753
2008-07-22 07:43:53 51°22.677 2°51.232 19.4508 0.024405 0.13535 -1.557753
2008-07-22 07:43:57 51°22.69 2°51.23 19.4477 0.023788 0.131939 -1.557753
2008-07-22 07:44:03 51°22.71 2°51.227 19.4472 0.023479 0.130219 -1.592577
2008-07-22 07:44:08 51°22.727 2°51.225 19.4398 0.022861 0.126804 -1.592577
2008-07-22 07:44:13 51°22.743 2°51.222 19.4489 0.022861 0.126804 -1.592577
2008-07-22 07:44:18 51°22.76 2°51.221 19.4429 0.023993 0.133056 -1.592577
2008-07-22 07:44:23 51°22.776 2°51.218 19.443 0.024096 0.133616 -1.557753
2008-07-22 07:44:28 51°22.793 2°51.215 19.4498 0.024508 0.135903 -1.557753
2008-07-22 07:44:33 51°22.81 2°51.213 19.4536 0.023479 0.130208 -1.592577
2008-07-22 07:44:38 51°22.827 2°51.21 19.4527 0.023273 0.129072 -1.592577
2008-07-22 07:44:43 51°22.843 2°51.208 19.45 0.023273 0.129072 -1.592577
2008-07-22 07:44:48 51°22.86 2°51.205 19.45 0.024199 0.134188 -1.557753
2008-07-22 07:44:53 51°22.877 2°51.202 19.4437 0.024405 0.135336 -1.592577
2008-07-22 07:44:58 51°22.893 2°51.2 19.4456 0.024919 0.138183 -1.557753
2008-07-22 07:45:03 51°22.91 2°51.197 19.4488 0.024714 0.13705 -1.557753
2008-07-22 07:45:08 51°22.927 2°51.194 19.4603 0.024096 0.133623 -1.592577
2008-07-22 07:45:13 51°22.943 2°51.192 19.4609 0.024096 0.133623 -1.592577
2008-07-22 07:45:17 51°22.957 2°51.189 19.4538 0.024714 0.137069 -1.592577
2008-07-22 07:45:23 51°22.977 2°51.186 19.4558 0.024096 0.133641 -1.557753
2008-07-22 07:45:28 51°22.993 2°51.183 19.4533 0.024199 0.134211 -1.557753
2008-07-22 07:45:33 51°23.01 2°51.18 19.4653 0.023376 0.129657 -1.557753
2008-07-22 07:45:38 51°23.027 2°51.176 19.4569 0.023376 0.129651 -1.592577
2008-07-22 07:45:43 51°23.043 2°51.172 19.4658 0.023376 0.129651 -1.592577
2008-07-22 07:45:48 51°23.06 2°51.17 19.4564 0.023788 0.13193 -1.557753
2008-07-22 07:45:53 51°23.077 2°51.168 19.4736 0.024302 0.134796 -1.592577
2008-07-22 07:45:58 51°23.094 2°51.165 19.4769 0.025846 0.143367 -1.592577
2008-07-22 07:46:03 51°23.11 2°51.164 19.4695 0.023993 0.133106 -1.627401
2008-07-22 07:46:08 51°23.127 2°51.161 19.4759 0.024919 0.13824 -1.662225
2008-07-22 07:46:13 51°23.143 2°51.159 19.4758 0.024919 0.13824 -1.662225
2008-07-22 07:46:18 51°23.16 2°51.158 19.4806 0.025331 0.140506 -1.627401
2008-07-22 07:46:23 51°23.176 2°51.155 19.4663 0.025537 0.141631 -1.627401
2008-07-22 07:46:28 51°23.193 2°51.153 19.4647 0.025125 0.13934 -1.627401
2008-07-22 07:46:33 51°23.209 2°51.151 19.4748 0.024817 0.137651 -1.627401
2008-07-22 07:46:37 51°23.223 2°51.15 19.469 0.024096 0.133666 -1.627401
2008-07-22 07:46:43 51°23.243 2°51.146 19.4757 0.024096 0.133666 -1.627401
2008-07-22 07:46:48 51°23.259 2°51.144 19.4669 0.023685 0.131368 -1.627401
2008-07-22 07:46:53 51°23.276 2°51.142 19.4756 0.024096 0.133653 -1.627401
2008-07-22 07:46:58 51°23.293 2°51.14 19.4781 0.025331 0.140513 -1.592577
2008-07-22 07:47:03 51°23.31 2°51.138 19.4873 0.024508 0.135952 -1.627401
2008-07-22 07:47:08 51°23.326 2°51.135 19.4878 0.025228 0.139928 -1.627401
2008-07-22 07:47:13 51°23.342 2°51.133 19.4787 0.025228 0.139928 -1.627401
2008-07-22 07:47:18 51°23.359 2°51.13 19.4802 0.024508 0.135929 -1.557753
2008-07-22 07:47:23 51°23.376 2°51.127 19.4828 0.02317 0.128536 -1.627401
2008-07-22 07:47:28 51°23.392 2°51.124 19.4886 0.023788 0.131952 -1.627401
2008-07-22 07:47:33 51°23.409 2°51.122 19.4867 0.02317 0.128543 -1.627401
2008-07-22 07:47:38 51°23.426 2°51.119 19.4896 0.023479 0.130246 -1.627401
2008-07-22 07:47:43 51°23.442 2°51.117 19.4863 0.023479 0.130246 -1.627401
2008-07-22 07:47:48 51°23.459 2°51.114 19.4893 0.023993 0.133104 -1.627401
2008-07-22 07:47:53 51°23.476 2°51.112 19.4964 0.025331 0.140518 -1.627401
2008-07-22 07:47:57 51°23.49 2°51.111 19.4975 0.024302 0.13481 -1.627401
2008-07-22 07:48:03 51°23.509 2°51.108 19.4969 0.023685 0.131376 -1.627401
2008-07-22 07:48:08 51°23.526 2°51.106 19.4918 0.024919 0.138202 -1.627401
2008-07-22 07:48:13 51°23.543 2°51.103 19.4901 0.024919 0.138202 -1.627401
2008-07-22 07:48:18 51°23.559 2°51.1 19.4892 0.025331 0.140511 -1.627401
2008-07-22 07:48:23 51°23.575 2°51.097 19.4891 0.024611 0.136527 -1.627401
2008-07-22 07:48:28 51°23.592 2°51.095 19.4863 0.025331 0.140511 -1.627401
2008-07-22 07:48:33 51°23.609 2°51.092 19.5016 0.024611 0.136515 -1.662225
2008-07-22 07:48:38 51°23.625 2°51.089 19.4926 0.025537 0.141662 -1.662225
2008-07-22 07:48:43 51°23.641 2°51.086 19.4968 0.025537 0.141662 -1.662225
2008-07-22 07:48:48 51°23.658 2°51.083 19.5044 0.024508 0.135952 -1.627401
2008-07-22 07:48:53 51°23.675 2°51.08 19.5073 0.024302 0.134808 -1.627401
2008-07-22 07:48:58 51°23.691 2°51.077 19.5075 0.024302 0.134803 -1.627401
2008-07-22 07:49:03 51°23.708 2°51.075 19.5038 0.024096 0.133657 -1.627401
2008-07-22 07:49:08 51°23.725 2°51.071 19.5041 0.023788 0.131961 -1.627401
2008-07-22 07:49:13 51°23.741 2°51.068 19.5083 0.023788 0.131961 -1.627401
2008-07-22 07:49:17 51°23.755 2°51.066 19.5102 0.024096 0.133678 -1.627401
2008-07-22 07:49:23 51°23.775 2°51.062 19.506 0.024817 0.137669 -1.627401
2008-07-22 07:49:28 51°23.791 2°51.059 19.5061 0.024096 0.133682 -1.627401
2008-07-22 07:49:33 51°23.808 2°51.056 19.4988 0.024919 0.138242 -1.627401
2008-07-22 07:49:38 51°23.825 2°51.053 19.5139 0.02389 0.13255 -1.627401
2008-07-22 07:49:43 51°23.842 2°51.05 19.5172 0.02389 0.13255 -1.627401
2008-07-22 07:49:48 51°23.859 2°51.048 19.5111 0.025125 0.139393 -1.627401
2008-07-22 07:49:53 51°23.875 2°51.044 19.5181 0.024919 0.138254 -1.627401
2008-07-22 07:49:58 51°23.892 2°51.041 19.5107 0.023993 0.13312 -1.627401
2008-07-22 07:50:03 51°23.908 2°51.038 19.5119 0.024302 0.134824 -1.627401
2008-07-22 07:50:08 51°23.925 2°51.035 19.5229 0.024199 0.134245 -1.627401
2008-07-22 07:50:13 51°23.941 2°51.032 19.5193 0.024199 0.134245 -1.627401
2008-07-22 07:50:18 51°23.957 2°51.029 19.5108 0.025331 0.140511 -1.627401
2008-07-22 07:50:23 51°23.974 2°51.025 19.5191 0.02389 0.132523 -1.627401
2008-07-22 07:50:28 51°23.991 2°51.021 19.5281 0.024714 0.137111 -1.627401
2008-07-22 07:50:33 51°24.007 2°51.018 19.5283 0.024096 0.133673 -1.662225
2008-07-22 07:50:37 51°24.02 2°51.016 19.5301 0.024405 0.1354 -1.627401
2008-07-22 07:50:43 51°24.039 2°51.012 19.5227 0.024405 0.1354 -1.627401
2008-07-22 07:50:48 51°24.056 2°51.009 19.5306 0.023788 0.131979 -1.627401
2008-07-22 07:50:53 51°24.072 2°51.005 19.53 0.024302 0.134824 -1.627401
2008-07-22 07:50:58 51°24.089 2°51.001 19.528 0.024096 0.133675 -1.627401
2008-07-22 07:51:03 51°24.105 2°50.997 19.5251 0.024199 0.134243 -1.627401
2008-07-22 07:51:08 51°24.122 2°50.994 19.5237 0.023479 0.130263 -1.627401
2008-07-22 07:51:13 51°24.139 2°50.99 19.531 0.023479 0.130263 -1.627401
2008-07-22 07:51:18 51°24.155 2°50.988 19.5326 0.023376 0.129688 -1.627401
2008-07-22 07:51:23 51°24.172 2°50.984 19.534 0.023479 0.130259 -1.627401
2008-07-22 07:51:28 51°24.189 2°50.981 19.522 0.023376 0.129708 -1.627401
2008-07-22 07:51:33 51°24.205 2°50.977 19.5237 0.024302 0.134838 -1.627401
2008-07-22 07:51:38 51°24.222 2°50.973 19.5305 0.023788 0.131997 -1.627401
2008-07-22 07:51:43 51°24.239 2°50.97 19.5422 0.023788 0.131997 -1.627401
2008-07-22 07:51:48 51°24.255 2°50.967 19.5294 0.02389 0.132575 -1.627401
2008-07-22 07:51:53 51°24.271 2°50.963 19.5342 0.024302 0.134858 -1.627401
2008-07-22 07:51:57 51°24.284 2°50.961 19.5425 0.024096 0.133705 -1.627401
2008-07-22 07:52:03 51°24.303 2°50.957 19.5387 0.023993 0.133149 -1.627401
2008-07-22 07:52:08 51°24.319 2°50.954 19.5413 0.02389 0.132582 -1.627401
2008-07-22 07:52:13 51°24.336 2°50.95 19.5328 0.02389 0.132582 -1.627401
2008-07-22 07:52:18 51°24.351 2°50.946 19.5439 0.024096 0.133703 -1.627401
2008-07-22 07:52:23 51°24.368 2°50.942 19.5493 0.025228 0.139959 -1.627401
2008-07-22 07:52:28 51°24.384 2°50.939 19.5497 0.023788 0.131988 -1.627401
2008-07-22 07:52:33 51°24.4 2°50.935 19.5468 0.02389 0.13255 -1.627401
2008-07-22 07:52:38 51°24.416 2°50.932 19.5505 0.025228 0.139971 -1.627401
2008-07-22 07:52:43 51°24.432 2°50.928 19.5421 0.025228 0.139971 -1.627401
2008-07-22 07:52:48 51°24.448 2°50.924 19.5445 0.023788 0.131986 -1.627401
2008-07-22 07:52:53 51°24.465 2°50.92 19.546 0.024096 0.133682 -1.627401
2008-07-22 07:52:57 51°24.478 2°50.918 19.5482 0.024405 0.135384 -1.627401
2008-07-22 07:53:03 51°24.497 2°50.913 19.5573 0.023479 0.130263 -1.627401
2008-07-22 07:53:08 51°24.514 2°50.909 19.5451 0.024714 0.137097 -1.627401
2008-07-22 07:53:13 51°24.53 2°50.906 19.55 0.024714 0.137097 -1.627401
2008-07-22 07:53:17 51°24.543 2°50.903 19.5541 0.024199 0.134247 -1.627401
2008-07-22 07:53:23 51°24.563 2°50.898 19.5569 0.023788 0.131974 -1.627401
2008-07-22 07:53:28 51°24.579 2°50.894 19.5589 0.023376 0.129699 -1.627401
2008-07-22 07:53:33 51°24.595 2°50.891 19.5605 0.023376 0.129699 -1.627401
2008-07-22 07:53:37 51°24.608 2°50.889 19.5538 0.024611 0.136531 -1.627401
2008-07-22 07:53:43 51°24.627 2°50.884 19.5645 0.024611 0.136531 -1.627401
2008-07-22 07:53:48 51°24.643 2°50.88 19.5627 0.024302 0.134831 -1.627401
2008-07-22 07:53:53 51°24.659 2°50.876 19.5636 0.024611 0.136541 -1.627401
2008-07-22 07:53:57 51°24.672 2°50.872 19.5626 0.024508 0.135961 -1.627401
2008-07-22 07:54:03 51°24.691 2°50.868 19.5679 0.023376 0.129695 -1.627401
2008-07-22 07:54:08 51°24.707 2°50.863 19.5664 0.02389 0.132548 -1.627401
2008-07-22 07:54:13 51°24.724 2°50.859 19.5744 0.02389 0.132548 -1.627401
2008-07-22 07:54:17 51°24.737 2°50.856 19.5756 0.024919 0.138254 -1.627401
2008-07-22 07:54:23 51°24.756 2°50.852 19.5744 0.02564 0.14226 -1.627401
2008-07-22 07:54:28 51°24.772 2°50.848 19.5624 0.02564 0.142256 -1.627401
2008-07-22 07:54:33 51°24.788 2°50.845 19.5643 0.024817 0.137688 -1.662225
2008-07-22 07:54:37 51°24.801 2°50.842 19.5711 0.024199 0.134247 -1.627401
2008-07-22 07:54:43 51°24.82 2°50.838 19.5756 0.024199 0.134247 -1.627401
2008-07-22 07:54:48 51°24.836 2°50.835 19.5695 0.02389 0.132517 -1.627401
2008-07-22 07:54:53 51°24.853 2°50.832 19.5713 0.023993 0.133079 -1.662225
2008-07-22 07:54:57 51°24.867 2°50.829 19.5752 0.024405 0.135373 -1.627401
2008-07-22 07:55:03 51°24.888 2°50.825 19.5788 0.023788 0.131965 -1.662225
2008-07-22 07:55:08 51°24.902 2°50.819 19.5752 0.024405 0.135394 -1.627401
2008-07-22 07:55:13 51°24.918 2°50.815 19.5736 0.024405 0.135394 -1.627401
2008-07-22 07:55:17 51°24.931 2°50.812 19.5692 0.023376 0.129708 -1.662225
2008-07-22 07:55:23 51°24.95 2°50.807 19.5831 0.024302 0.134826 -1.627401
2008-07-22 07:55:28 51°24.966 2°50.804 19.5825 0.024302 0.134819 -1.627401
2008-07-22 07:55:33 51°24.982 2°50.8 19.5876 0.023788 0.131983 -1.627401
2008-07-22 07:55:37 51°24.995 2°50.796 19.5815 0.024405 0.135403 -1.627401
2008-07-22 07:55:43 51°25.014 2°50.792 19.5778 0.024405 0.135403 -1.627401
2008-07-22 07:55:48 51°25.031 2°50.788 19.5814 0.023685 0.131425 -1.662225
2008-07-22 07:55:53 51°25.047 2°50.784 19.5864 0.022964 0.127462 -1.627401
2008-07-22 07:55:57 51°25.06 2°50.781 19.5873 0.024096 0.133728 -1.627401
2008-07-22 07:56:03 51°25.08 2°50.778 19.5811 0.023582 0.13087 -1.662225
2008-07-22 07:56:08 51°25.095 2°50.773 19.5785 0.024096 0.133712 -1.627401
2008-07-22 07:56:13 51°25.112 2°50.769 19.593 0.024096 0.133712 -1.627401
2008-07-22 07:56:18 51°25.128 2°50.766 19.5892 0.023685 0.131425 -1.627401
2008-07-22 07:56:23 51°25.145 2°50.762 19.5887 0.023479 0.130288 -1.662225
2008-07-22 07:56:28 51°25.161 2°50.759 19.5986 0.02317 0.128575 -1.627401
2008-07-22 07:56:33 51°25.178 2°50.755 19.6028 0.023685 0.131419 -1.627401
2008-07-22 07:56:38 51°25.194 2°50.752 19.5935 0.024508 0.135975 -1.627401
2008-07-22 07:56:43 51°25.21 2°50.749 19.6046 0.024508 0.135975 -1.627401
2008-07-22 07:56:48 51°25.227 2°50.746 19.5944 0.023685 0.131419 -1.662225
2008-07-22 07:56:53 51°25.243 2°50.742 19.6066 0.023685 0.131414 -1.627401
2008-07-22 07:56:58 51°25.259 2°50.738 19.6039 0.023788 0.131992 -1.662225
2008-07-22 07:57:03 51°25.275 2°50.734 19.607 0.022861 0.126881 -1.662225
2008-07-22 07:57:08 51°25.292 2°50.73 19.603 0.023479 0.130288 -1.662225
2008-07-22 07:57:13 51°25.308 2°50.727 19.6016 0.023479 0.130288 -1.662225
2008-07-22 07:57:18 51°25.324 2°50.723 19.5878 0.02245 0.124598 -1.627401
2008-07-22 07:57:23 51°25.34 2°50.72 19.6026 0.023376 0.129699 -1.627401
2008-07-22 07:57:28 51°25.356 2°50.716 19.5995 0.024714 0.137106 -1.627401
2008-07-22 07:57:33 51°25.372 2°50.713 19.6048 0.025022 0.138832 -1.627401
2008-07-22 07:57:38 51°25.389 2°50.71 19.6136 0.023993 0.133108 -1.627401
2008-07-22 07:57:43 51°25.405 2°50.706 19.6069 0.023993 0.133108 -1.627401
2008-07-22 07:57:48 51°25.421 2°50.703 19.604 0.023993 0.13309 -1.627401
2008-07-22 07:57:53 51°25.438 2°50.7 19.6119 0.023273 0.129107 -1.662225
2008-07-22 07:57:58 51°25.454 2°50.697 19.6111 0.024199 0.134238 -1.627401
2008-07-22 07:58:03 51°25.47 2°50.694 19.616 0.024096 0.133703 -1.627401
2008-07-22 07:58:08 51°25.487 2°50.691 19.6137 0.023685 0.13143 -1.662225
2008-07-22 07:58:13 51°25.503 2°50.688 19.6134 0.023685 0.13143 -1.662225
2008-07-22 07:58:18 51°25.519 2°50.685 19.6137 0.02317 0.12858 -1.627401
2008-07-22 07:58:23 51°25.536 2°50.682 19.6168 0.024302 0.134838 -1.627401
2008-07-22 07:58:28 51°25.552 2°50.679 19.6218 0.024817 0.137693 -1.627401
2008-07-22 07:58:33 51°25.568 2°50.675 19.6225 0.02317 0.128571 -1.662225
2008-07-22 07:58:38 51°25.584 2°50.672 19.6215 0.023993 0.133117 -1.662225
2008-07-22 07:58:43 51°25.601 2°50.668 19.6107 0.023993 0.133117 -1.662225
2008-07-22 07:58:48 51°25.617 2°50.665 19.6219 0.022244 0.123453 -1.627401
2008-07-22 07:58:53 51°25.634 2°50.661 19.6266 0.023993 0.133124 -1.662225
2008-07-22 07:58:58 51°25.65 2°50.658 19.6298 0.025331 0.140537 -1.662225
2008-07-22 07:59:03 51°25.666 2°50.656 19.6319 0.02317 0.128564 -1.627401
2008-07-22 07:59:08 51°25.682 2°50.652 19.6262 0.024919 0.138244 -1.627401
2008-07-22 07:59:13 51°25.698 2°50.649 19.6165 0.024919 0.138244 -1.627401
2008-07-22 07:59:18 51°25.715 2°50.645 19.6303 0.02317 0.128571 -1.662225
2008-07-22 07:59:23 51°25.731 2°50.642 19.6259 0.023273 0.129133 -1.627401
2008-07-22 07:59:28 51°25.747 2°50.638 19.6355 0.022758 0.126292 -1.627401
2008-07-22 07:59:33 51°25.763 2°50.636 19.6264 0.023582 0.130834 -1.627401
2008-07-22 07:59:38 51°25.779 2°50.632 19.6415 0.024405 0.135398 -1.662225
2008-07-22 07:59:43 51°25.795 2°50.629 19.631 0.024405 0.135398 -1.662225
2008-07-22 07:59:48 51°25.811 2°50.625 19.6229 0.024302 0.134835 -1.627401
2008-07-22 07:59:53 51°25.827 2°50.624 19.6231 0.023685 0.13141 -1.662225
2008-07-22 07:59:58 51°25.843 2°50.62 19.6347 0.025228 0.139954 -1.627401
2008-07-22 08:00:03 51°25.859 2°50.617 19.6297 0.024611 0.136541 -1.627401
2008-07-22 08:00:08 51°25.875 2°50.614 19.6251 0.024302 0.134854 -1.627401
2008-07-22 08:00:13 51°25.891 2°50.611 19.6297 0.024302 0.134854 -1.627401
2008-07-22 08:00:18 51°25.907 2°50.608 19.6388 0.024714 0.137144 -1.627401
2008-07-22 08:00:23 51°25.923 2°50.605 19.6515 0.025537 0.141704 -1.627401
2008-07-22 08:00:28 51°25.939 2°50.602 19.6424 0.024405 0.135433 -1.627401
2008-07-22 08:00:33 51°25.954 2°50.599 19.6483 0.024199 0.134284 -1.627401
2008-07-22 08:00:38 51°25.97 2°50.596 19.64 0.024817 0.137686 -1.627401
2008-07-22 08:00:43 51°25.986 2°50.593 19.6384 0.024817 0.137686 -1.627401
2008-07-22 08:00:48 51°26.002 2°50.589 19.65 0.023788 0.132001 -1.627401
2008-07-22 08:00:53 51°26.018 2°50.586 19.6551 0.025022 0.138874 -1.627401
2008-07-22 08:00:58 51°26.034 2°50.582 19.6465 0.023788 0.132037 -1.627401
2008-07-22 08:01:03 51°26.05 2°50.579 19.6457 0.023582 0.130901 -1.627401
2008-07-22 08:01:08 51°26.066 2°50.574 19.6558 0.024611 0.136613 -1.627401
2008-07-22 08:01:13 51°26.082 2°50.57 19.6565 0.024611 0.136613 -1.627401
2008-07-22 08:01:17 51°26.095 2°50.567 19.6602 0.025434 0.141173 -1.627401
2008-07-22 08:01:23 51°26.114 2°50.562 19.6479 0.024817 0.137735 -1.627401
2008-07-22 08:01:28 51°26.13 2°50.558 19.6552 0.024714 0.137158 -1.627401
2008-07-22 08:01:33 51°26.146 2°50.555 19.6578 0.024096 0.133732 -1.627401
2008-07-22 08:01:38 51°26.162 2°50.55 19.6534 0.024302 0.134865 -1.627401
2008-07-22 08:01:43 51°26.178 2°50.547 19.665 0.024302 0.134865 -1.627401
2008-07-22 08:01:48 51°26.194 2°50.543 19.6712 0.024508 0.135998 -1.627401
2008-07-22 08:01:53 51°26.21 2°50.539 19.6601 0.024508 0.135991 -1.627401
2008-07-22 08:01:57 51°26.223 2°50.535 19.6669 0.024817 0.137705 -1.627401
2008-07-22 08:02:03 51°26.243 2°50.53 19.6634 0.023993 0.13314 -1.627401
2008-07-22 08:02:08 51°26.259 2°50.525 19.661 0.024611 0.136557 -1.627401
2008-07-22 08:02:13 51°26.276 2°50.52 19.659 0.024611 0.136557 -1.627401
2008-07-22 08:02:18 51°26.292 2°50.516 19.6605 0.023273 0.129148 -1.627401
2008-07-22 08:02:23 51°26.309 2°50.511 19.6654 0.023273 0.129146 -1.627401
2008-07-22 08:02:28 51°26.324 2°50.507 19.6606 0.023273 0.129174 -1.627401
2008-07-22 08:02:33 51°26.34 2°50.503 19.6689 0.024302 0.134881 -1.627401
2008-07-22 08:02:38 51°26.356 2°50.499 19.6699 0.022656 0.125756 -1.627401
2008-07-22 08:02:43 51°26.373 2°50.494 19.6631 0.022656 0.125756 -1.627401
2008-07-22 08:02:48 51°26.389 2°50.49 19.6725 0.023376 0.129728 -1.662225
2008-07-22 08:02:53 51°26.406 2°50.486 19.6729 0.023376 0.129725 -1.627401
2008-07-22 08:02:58 51°26.422 2°50.481 19.6786 0.023788 0.132004 -1.627401
2008-07-22 08:03:03 51°26.438 2°50.478 19.6777 0.023376 0.129723 -1.627401
2008-07-22 08:03:08 51°26.455 2°50.474 19.6837 0.022553 0.125178 -1.627401
2008-07-22 08:03:13 51°26.471 2°50.471 19.6742 0.022553 0.125178 -1.627401
2008-07-22 08:03:18 51°26.487 2°50.467 19.6829 0.022656 0.125752 -1.627401
2008-07-22 08:03:23 51°26.503 2°50.464 19.6829 0.022964 0.127456 -1.627401
2008-07-22 08:03:28 51°26.52 2°50.46 19.6837 0.022861 0.126896 -1.627401
2008-07-22 08:03:33 51°26.536 2°50.457 19.6854 0.021935 0.121793 -1.627401
2008-07-22 08:03:38 51°26.553 2°50.453 19.6753 0.02317 0.128612 -1.627401
2008-07-22 08:03:43 51°26.568 2°50.449 19.6832 0.02317 0.128612 -1.627401
2008-07-22 08:03:48 51°26.585 2°50.444 19.6805 0.023685 0.131452 -1.627401
2008-07-22 08:03:53 51°26.601 2°50.441 19.689 0.023993 0.133158 -1.627401
2008-07-22 08:03:58 51°26.617 2°50.437 19.6925 0.023376 0.129747 -1.662225
2008-07-22 08:04:03 51°26.633 2°50.433 19.6761 0.023993 0.133163 -1.627401
2008-07-22 08:04:08 51°26.649 2°50.429 19.6833 0.02389 0.13258 -1.627401
2008-07-22 08:04:13 51°26.665 2°50.425 19.6783 0.02389 0.13258 -1.627401
2008-07-22 08:04:18 51°26.68 2°50.422 19.6801 0.02389 0.132575 -1.627401
2008-07-22 08:04:23 51°26.696 2°50.418 19.6933 0.024508 0.135989 -1.627401
2008-07-22 08:04:28 51°26.713 2°50.415 19.6935 0.023993 0.133151 -1.627401
2008-07-22 08:04:33 51°26.729 2°50.41 19.7033 0.023479 0.130318 -1.627401
2008-07-22 08:04:38 51°26.745 2°50.409 19.6939 0.023582 0.130883 -1.627401
2008-07-22 08:04:43 51°26.76 2°50.404 19.6926 0.023582 0.130883 -1.627401
2008-07-22 08:04:48 51°26.777 2°50.401 19.7007 0.022861 0.126892 -1.627401
2008-07-22 08:04:53 51°26.793 2°50.397 19.702 0.025949 0.143983 -1.627401
2008-07-22 08:04:58 51°26.809 2°50.394 19.6916 0.025228 0.139988 -1.627401
2008-07-22 08:05:03 51°26.825 2°50.39 19.7044 0.023376 0.129741 -1.662225
2008-07-22 08:05:08 51°26.841 2°50.387 19.7025 0.022347 0.124055 -1.627401
2008-07-22 08:05:13 51°26.857 2°50.383 19.7002 0.022347 0.124055 -1.627401
2008-07-22 08:05:18 51°26.873 2°50.38 19.7113 0.023273 0.129166 -1.627401
2008-07-22 08:05:23 51°26.889 2°50.375 19.7028 0.025537 0.141713 -1.627401
2008-07-22 08:05:28 51°26.905 2°50.372 19.704 0.025022 0.138865 -1.627401
2008-07-22 08:05:33 51°26.921 2°50.367 19.7091 0.024611 0.13658 -1.627401
2008-07-22 08:05:38 51°26.937 2°50.364 19.707 0.024817 0.137719 -1.627401
2008-07-22 08:05:43 51°26.953 2°50.359 19.7137 0.024817 0.137719 -1.627401
2008-07-22 08:05:48 51°26.97 2°50.357 19.7019 0.024714 0.137144 -1.627401
2008-07-22 08:05:53 51°26.986 2°50.352 19.7143 0.02492 0.138287 -1.627401
2008-07-22 08:05:58 51°27.002 2°50.349 19.7169 0.023993 0.133156 -1.697049
2008-07-22 08:06:03 51°27.018 2°50.345 19.7186 0.023685 0.131446 -1.627401
2008-07-22 08:06:08 51°27.034 2°50.342 19.7086 0.025846 0.143433 -1.627401
2008-07-22 08:06:13 51°27.051 2°50.338 19.7159 0.025846 0.143433 -1.627401
2008-07-22 08:06:18 51°27.067 2°50.334 19.7068 0.025022 0.138865 -1.627401
2008-07-22 08:06:23 51°27.083 2°50.33 19.7245 0.022964 0.127465 -1.627401
2008-07-22 08:06:28 51°27.099 2°50.326 19.7057 0.022656 0.125756 -1.627401
2008-07-22 08:06:33 51°27.115 2°50.322 19.7165 0.024302 0.134856 -1.627401
2008-07-22 08:06:38 51°27.131 2°50.318 19.728 0.023479 0.130299 -1.627401
2008-07-22 08:06:43 51°27.147 2°50.313 19.7261 0.023479 0.130299 -1.627401
2008-07-22 08:06:48 51°27.162 2°50.31 19.7282 0.023993 0.133149 -1.627401
2008-07-22 08:06:53 51°27.178 2°50.304 19.7222 0.02492 0.138289 -1.627401
2008-07-22 08:06:58 51°27.194 2°50.302 19.7149 0.023376 0.12975 -1.627401
2008-07-22 08:07:03 51°27.21 2°50.298 19.7215 0.024096 0.133732 -1.627401
2008-07-22 08:07:08 51°27.225 2°50.294 19.7297 0.022553 0.125184 -1.627401
2008-07-22 08:07:13 51°27.242 2°50.29 19.732 0.022553 0.125184 -1.627401
2008-07-22 08:07:18 51°27.258 2°50.286 19.7334 0.023479 0.130292 -1.627401
2008-07-22 08:07:23 51°27.274 2°50.283 19.7198 0.023788 0.132001 -1.627401
2008-07-22 08:07:28 51°27.29 2°50.279 19.7313 0.022656 0.125739 -1.627401
2008-07-22 08:07:33 51°27.306 2°50.275 19.7312 0.023685 0.131452 -1.627401
2008-07-22 08:07:38 51°27.322 2°50.272 19.7393 0.022758 0.126348 -1.627401
2008-07-22 08:07:43 51°27.338 2°50.268 19.7323 0.022758 0.126348 -1.627401
2008-07-22 08:07:48 51°27.354 2°50.264 19.7276 0.022861 0.126916 -1.627401
2008-07-22 08:07:53 51°27.371 2°50.26 19.7404 0.023582 0.130896 -1.627401
2008-07-22 08:07:58 51°27.387 2°50.256 19.7278 0.024096 0.133748 -1.627401
2008-07-22 08:08:03 51°27.403 2°50.253 19.732 0.02317 0.12863 -1.627401
2008-07-22 08:08:08 51°27.419 2°50.249 19.7349 0.023067 0.128057 -1.627401
2008-07-22 08:08:13 51°27.436 2°50.246 19.7371 0.023067 0.128057 -1.627401
2008-07-22 08:08:18 51°27.452 2°50.242 19.7328 0.023582 0.130899 -1.627401
2008-07-22 08:08:23 51°27.468 2°50.239 19.7374 0.023479 0.130332 -1.627401
2008-07-22 08:08:28 51°27.484 2°50.235 19.7393 0.023993 0.133172 -1.627401
2008-07-22 08:08:33 51°27.5 2°50.232 19.7347 0.02492 0.138308 -1.627401
2008-07-22 08:08:38 51°27.516 2°50.228 19.7344 0.024199 0.134307 -1.662225
2008-07-22 08:08:43 51°27.533 2°50.224 19.7457 0.024199 0.134307 -1.662225
2008-07-22 08:08:48 51°27.549 2°50.221 19.747 0.023788 0.132021 -1.627401
2008-07-22 08:08:53 51°27.565 2°50.217 19.7391 0.023273 0.129176 -1.627401
2008-07-22 08:08:58 51°27.581 2°50.214 19.7398 0.024508 0.136012 -1.662225
2008-07-22 08:09:03 51°27.598 2°50.211 19.7589 0.023685 0.131459 -1.627401
2008-07-22 08:09:08 51°27.614 2°50.207 19.7554 0.023685 0.131454 -1.627401
2008-07-22 08:09:13 51°27.63 2°50.203 19.7538 0.023685 0.131454 -1.627401
2008-07-22 08:09:18 51°27.646 2°50.199 19.7558 0.023788 0.132021 -1.627401
2008-07-22 08:09:23 51°27.662 2°50.195 19.7541 0.023376 0.129743 -1.627401
2008-07-22 08:09:28 51°27.678 2°50.191 19.7513 0.022758 0.126331 -1.627401